     2.00           OBSERVATION DATA    G (GPS)             RINEX VERSION / TYPE
teqc 1999Jan4 Victoria Andreatta 19990104 22:55:39UTC       PGM / RUN BY / DATE
Linux 2.0.30|PentPro|gcc|Linux|486/DX+                      COMMENT
BIT 2 OF LLI FLAGS DATA COLLECTED UNDER A/S CONDITION       COMMENT
                                                            MARKER NAME
                                                            OBSERVER / AGENCY
0 TURBOROGUE 98.05.13                                       REC # / TYPE / VERS
-Unknown- -Unknown-                                         ANT # / TYPE
 -1286002.5542 -4719339.2304  4082020.9102                  APPROX POSITION XYZ
        0.0000        0.0000        0.0000                  ANTENNA: DELTA H/E/N
     1     1                                                WAVELENGTH FACT L1/2
     5    L1    L2    C1    P2    P1                        # / TYPES OF OBSERV
SNR is mapped to RINEX snr flag value [1,4-9]               COMMENT
SNR: >316 >100 >31.6 >10 >3.2 >0 bad=0                      COMMENT
L1 & L2: 9 8 7 6 5 4 1                                      COMMENT
  1999     1     3     0     0    0.000000      GPS         TIME OF FIRST OBS
                                                            END OF HEADER
 99  1  3  0  0  0.0000000  0  7G27G15G 4G 9G26G 7G 2
 -18886176.678 6 -14716472.921 6  21846059.512    21846056.690
   2271137.009 5   1769723.503 4  22886608.470    22886605.834
  -6990500.808 4  -5447130.547 4  23713145.743    23713140.857
  -5272942.247 4  -4108776.517 4  24145448.317    24145445.281
  -8219549.989 4  -6404819.536 4  23526643.941    23526639.435
 -23919383.363 9 -18638445.778 9  20393760.983    20393759.464
  -4841178.135 9  -3772338.389 9  20730672.948    20730671.391
 99  1  3  0  0 30.0000000  0  7G27G15G 4G 9G26G 7G 2
 -18790792.590 6 -14642147.655 5  21864210.367    21864208.207
   2329499.836 5   1815201.048 4  22897714.118    22897711.663
  -7102617.701 4  -5534494.206 4  23691808.459    23691806.395
  -5370066.524 4  -4184457.589 4  24126966.373    24126963.416
  -8175634.431 4  -6370599.623 4  23535001.182    23534996.182
 -23938198.808 9 -18653107.129 9  20390180.393    20390178.701
  -4833172.513 9  -3766100.224 9  20732196.447    20732194.856
 99  1  3  0  1  0.0000000  0  7G27G15G 4G 9G26G 7G 2
 -18695065.144 6 -14567554.838 5  21882426.820    21882424.392
   2388406.506 5   1861102.361 4  22908923.565    22908920.942
  -7214626.731 4  -5621773.810 4  23670493.534    23670490.639
  -5466982.487 4  -4259976.370 4  24108523.814    24108521.119
  -8131316.728 4  -6336066.332 4  23543434.823    23543430.198
 -23956648.509 9 -18667483.486 9  20386669.394    20386667.761
  -4824907.735 9  -3759660.116 9  20733769.133    20733767.558
 99  1  3  0  1 30.0000000  0  7G27G15G 4G 9G26G 7G 2
 -18598989.398 6 -14492690.620 5  21900709.407    21900707.060
   2447853.509 5   1907424.722 4  22920235.892    22920233.194
  -7326518.658 4  -5708962.098 4  23649202.766    23649199.041
  -5563685.432 4  -4335329.146 4  24090121.974    24090118.996
  -8086609.604 4  -6301229.606 4  23551941.837    23551937.636
 -23974733.312 9 -18681575.503 9  20383228.011    20383226.479
  -4816377.876 9  -3753013.452 9  20735392.218    20735390.705
 99  1  3  0  2  0.0000000  0  7G27G15G 4G 9G26G 7G 2
 -18502573.965 6 -14417561.712 5  21919056.843    21919054.340
   2507829.901 5   1954159.590 4  22931648.877    22931646.576
  -7438295.534 4  -5796060.741 4  23627931.857    23627928.547
  -5660180.035 4  -4410519.586 4  24071759.000    24071756.247
  -8041522.617 4  -6266096.870 4  23560520.734    23560517.709
 -23992445.368 9 -18695377.067 9  20379857.641    20379856.038
  -4807588.626 9  -3746164.666 9  20737064.823    20737063.297
 99  1  3  0  2 30.0000000  0  7G27G15G 4G 9G26G 7G 2
 -18405820.163 6 -14342169.139 5  21937468.241    21937466.209
   2568333.553 5   2001305.313 4  22943162.150    22943160.006
  -7549966.359 4  -5883076.798 4  23606679.969    23606677.648
  -5756458.850 4  -4485541.875 4  24053438.553    24053434.556
  -7996046.032 4  -6230660.553 4  23569174.515    23569171.638
 -24009788.097 9 -18708890.847 9  20376557.499    20376555.823
  -4798541.390 9  -3739114.851 9  20738786.516    20738784.836
 99  1  3  0  3  0.0000000  0  7G27G15G 4G 9G26G 7G 2
 -18308715.809 6 -14266503.405 5  21955946.429    21955944.459
   2629358.521 5   2048857.260 4  22954774.662    22954772.621
  -7661548.896 4  -5970024.016 4  23585447.488    23585443.951
  -5852535.487 4  -4560406.584 4  24035155.178    24035150.929
  -7950189.524 4  -6194928.201 4  23577900.654    23577898.184
 -24026758.066 9 -18722114.163 9  20373328.156    20373326.449
  -4789226.540 9  -3731856.504 9  20740559.234    20740557.424
 99  1  3  0  3 30.0000000  0  7G27G15G 4G 9G26G 7G 2
 -18211252.887 6 -14190558.266 5  21974493.106    21974490.852
   2690901.550 5   2096812.880 4  22966485.951    22966483.972
  -7773051.477 4  -6056908.922 4  23564229.219    23564225.347
  -5948396.637 4  -4635103.403 4  24016912.569    24016909.352
  -7903949.170 4  -6158896.766 4  23586700.121    23586696.553
 -24043352.784 9 -18735045.072 9  20370170.254    20370168.526
  -4779640.157 9  -3724386.570 9  20742383.394    20742381.700
 99  1  3  0  4  0.0000000  0  7G27G15G 4G 9G26G 7G 2
 -18113431.159 6 -14114333.541 5  21993107.950    21993105.650
   2752971.163 5   2145178.832 4  22978297.423    22978295.422
  -7884475.143 4  -6143732.316 4  23543026.078    23543021.681
  -6044031.435 4  -4709623.863 4  23998713.592    23998711.310
  -7857303.434 4  -6122549.459 4  23595577.077    23595573.504
 -24059573.120 9 -18747684.256 9  20367083.475    20367081.777
  -4769777.914 9  -3716701.679 9  20744260.078    20744258.587
 99  1  3  0  4 30.0000000  0  7G27G15G 4G 9G26G 7G 2
 -18015264.046 6 -14037839.688 5  22011788.468    22011785.967
   2815557.549 5   2193947.476 4  22990207.220    22990205.053
  -7995825.092 4  -6230498.311 4  23521836.111    23521832.561
  -6139449.086 4  -4783975.099 4  23980557.023    23980553.393
  -7810261.099 4  -6085893.101 4  23604529.423    23604525.714
 -24075445.523 9 -18760052.329 9  20364062.884    20364061.235
  -4759651.923 9  -3708811.268 9  20746186.886    20746185.412
 99  1  3  0  5  0.0000000  0  7G27G15G 4G 9G26G 7G 2
 -17916744.612 6 -13961071.286 5  22030535.933    22030533.837
   2878670.312 4   2243126.280 4  23002217.558    23002214.652
  -8107084.474 4  -6317193.719 4  23500663.772    23500660.256
  -6234631.591 4  -4858143.062 4  23962444.267    23962440.594
  -7762820.728 4  -6048926.603 4  23613556.752    23613552.943
 -24090954.310 9 -18772137.070 9  20361111.534    20361110.010
  -4749251.452 9  -3700706.978 9  20748166.097    20748164.435
 99  1  3  0  5 30.0000000  0  7G27G15G 4G 9G26G 7G 2
 -17817896.822 5 -13884047.022 5  22049346.240    22049343.616
   2942301.749 5   2292709.234 4  23014325.972    23014323.562
  -8218240.559 4  -6403808.591 4  23479511.669    23479508.199
  -6329582.234 4  -4932130.425 4  23944374.209    23944371.930
  -7714985.801 4  -6011652.634 4  23622658.901    23622655.247
 -24106109.855 9 -18783946.554 9  20358227.575    20358226.221
  -4738582.957 9  -3692393.842 9  20750196.101    20750194.414
 99  1  3  0  6  0.0000000  0  7G27G15G 4G 9G26G 7G 2
 -17718730.046 5 -13806774.212 5  22068217.525    22068214.800
   3006446.548 4   2342692.221 4  23026532.259    23026529.946
  -8329281.029 4  -6490333.418 4  23458380.459    23458378.283
  -6424318.859 4  -5005951.024 4  23926347.516    23926343.306
  -7666766.817 4  -5974079.403 4  23631833.636    23631831.470
 -24120917.072 9 -18795484.618 9  20355409.954    20355408.621
  -4727643.224 9  -3683869.350 9  20752277.704    20752276.171
 99  1  3  0  6 30.0000000  0  7G27G15G 4G 9G26G 7G 2
 -17619250.061 5 -13729257.339 5  22087147.251    22087145.232
   3071094.978 4   2393067.649 4  23038834.241    23038832.312
  -8440206.677 4  -6576768.822 4  23437271.786    23437269.179
  -6518842.920 4  -5079605.933 4  23908360.439    23908357.198
  -7618175.013 4  -5936215.668 4  23641079.852    23641077.911
 -24135377.203 9 -18806752.230 9  20352658.307    20352656.841
  -4716424.400 9  -3675127.386 9  20754412.607    20754411.101
 99  1  3  0  7  0.0000000  0  7G27G15G 4G 9G26G 7G 2
 -17519449.390 5 -13651490.574 5  22106138.340    22106136.784
   3136249.341 4   2443837.308 4  23051232.732    23051230.702
  -8551015.104 4  -6663112.808 4  23416186.368    23416183.395
  -6613145.820 4  -5153088.557 4  23890414.503    23890411.450
  -7569197.648 4  -5898051.491 4  23650400.327    23650398.318
 -24149471.807 9 -18817735.010 9  20349975.986    20349974.597
  -4704917.674 9  -3666161.081 9  20756602.337    20756600.633
 99  1  3  0  7 30.0000000  0  7G27G15G 4G 9G26G 7G 2
 -17419325.298 5 -13573471.800 5  22125192.099    22125189.792
   3201906.557 4   2494998.792 4  23063726.809    23063724.940
  -8661697.963 4  -6749358.998 4  23395124.764    23395121.192
  -6707233.597 4  -5226403.631 4  23872509.314    23872506.244
  -7519834.332 4  -5859586.614 4  23659794.565    23659791.821
 -24163213.849 9 -18828443.062 9  20347360.829    20347359.577
  -4693110.913 9  -3656960.980 9  20758849.186    20758847.240
 99  1  3  0  8  0.0000000  0  7G27G15G 4G 9G26G 7G 2
 -17318861.467 5 -13495188.301 5  22144310.154    22144307.312
   3268074.242 4   2546558.044 4  23076318.023    23076316.260
  -8772254.184 4  -6835506.532 4  23374085.171    23374081.658
  -6801073.962 4  -5299525.833 4  23854653.422    23854650.062
  -7470080.419 4  -5820817.374 4  23669262.336    23669259.679
 -24176595.747 9 -18838870.480 9  20344814.583    20344813.244
  -4680996.943 9  -3647521.495 9  20761154.315    20761152.613
 99  1  3  0  8 30.0000000  0  7G27G15G 4G 9G26G 7G 2
 -17218072.657 5 -13416651.564 5  22163489.009    22163486.731
   3334746.404 4   2598510.394 4  23089005.248    23089003.518
  -8882694.965 4  -6921564.091 4  23353068.803    23353065.825
  -6894645.827 4  -5372438.827 4  23836846.766    23836843.663
  -7419945.975 4  -5781751.597 4  23678802.555    23678798.959
 -24189610.051 9 -18849011.468 9  20342338.170    20342336.635
  -4668586.396 9  -3637850.908 9  20763515.991    20763514.387
 99  1  3  0  9  0.0000000  0  7G27G15G 4G 9G26G 7G 2
 -17116958.904 5 -13337861.624 5  22182730.192    22182728.004
   3401922.320 4   2650855.269 4  23101788.830    23101786.280
  -8993002.504 4  -7007517.867 4  23332078.606    23332074.726
  -6987945.470 4  -5445139.748 4  23819091.037    23819088.891
  -7369449.379 4  -5742403.625 4  23688413.002    23688408.439
 -24202253.981 9 -18858863.858 9  20339931.991    20339930.435
  -4655882.149 9  -3627951.465 9  20765933.416    20765931.678
 99  1  3  0  9 30.0000000  0  7G27G15G 4G 9G26G 7G 2
 -17015542.542 5 -13258835.888 5  22202029.203    22202027.320
   3469592.240 4   2703585.085 4  23114665.885    23114663.739
  -9103183.490 4  -7093372.990 4  23311111.269    23311107.623
  -7080982.138 4  -5517635.796 4  23801386.749    23801385.066
  -7318613.702 4  -5702791.443 4  23698086.451    23698082.635
 -24214546.361 9 -18868442.310 9  20337592.647    20337591.040
  -4642896.286 9  -3617832.584 9  20768404.584    20768402.790
 99  1  3  0 10  0.0000000  0  7G27G15G 4G 9G26G 7G 2
 -16913837.300 5 -13179585.055 5  22221383.309    22221380.764
   3537760.856 4   2756703.495 4  23127637.701    23127635.902
  -9213241.008 4  -7179131.964 4  23290167.057    23290164.708
  -7173748.698 4  -5589921.321 4  23783735.207    23783731.486
  -7267428.738 4  -5662907.073 4  23707825.530    23707822.999
 -24226463.188 9 -18877728.130 9  20335325.080    20335323.405
  -4629640.020 9  -3607503.000 9  20770927.063    20770925.445
 99  1  3  0 10 30.0000000  0  7G27G15G 4G 9G26G 7G 2
 -16811853.458 5 -13100117.135 5  22240789.573    22240787.709
   3606423.815 4   2810207.103 4  23140704.151    23140702.184
  -9323162.884 4  -7264785.230 4  23269249.951    23269247.681
  -7266265.344 4  -5662012.092 4  23766129.318    23766125.967
  -7215899.259 4  -5622754.240 4  23717631.665    23717628.969
 -24237996.818 9 -18886715.351 9  20333130.373    20333128.772
  -4616114.361 9  -3596963.500 9  20773500.820    20773499.372
 99  1  3  0 11  0.0000000  0  7G27G15G 4G 9G26G 7G 2
 -16709579.143 5 -13020422.855 5  22260251.694    22260250.024
   3675581.054 4   2864095.871 4  23153864.267    23153862.256
  -9432940.514 4  -7350326.070 4  23248359.892    23248357.475
  -7358551.209 4  -5733923.064 4  23748566.775    23748565.042
  -7164018.254 4  -5582327.523 4  23727504.231    23727501.307
 -24249156.927 9 -18895411.508 9  20331006.640    20331005.152
  -4602322.359 9  -3586216.458 9  20776125.278    20776123.801
 99  1  3  0 11 30.0000000  0  7G27G15G 4G 9G26G 7G 2
 -16607008.138 5 -12940497.393 5  22279770.750    22279768.152
   3745235.884 4   2918372.363 4  23167119.284    23167116.374
  -9542580.717 4  -7435759.824 4  23227495.442    23227493.336
  -7450593.993 4  -5805644.663 4  23731051.383    23731049.696
  -7111768.979 4  -5541613.834 4  23737446.165    23737444.201
 -24259935.744 9 -18903810.551 9  20328955.397    20328954.040
  -4588254.896 9  -3575254.769 9  20778802.236    20778800.660
 99  1  3  0 12  0.0000000  0  7G27G15G 4G 9G26G 7G 2
 -16504126.879 5 -12860330.180 5  22299348.077    22299346.033
   3815379.975 4   2973030.096 4  23180467.218    23180464.341
  -9652069.632 4  -7521075.730 4  23206660.055    23206658.695
  -7542383.340 4  -5877168.727 4  23713585.057    23713582.659
  -7059163.252 4  -5500622.375 4  23747457.809    23747453.704
 -24270334.262 9 -18911913.258 9  20326976.438    20326975.329
  -4573907.887 9  -3564075.252 9  20781532.471    20781530.871
 99  1  3  0 12 30.0000000  0  7G27G15G 4G 9G26G 7G 2
 -16400908.172 5 -12779900.012 5  22318990.136    22318987.965
   3886016.149 4   3028071.267 4  23193908.740    23193906.043
  -9761390.468 4  -7606260.645 4  23185856.898    23185854.926
  -7633903.783 4  -5948483.276 4  23696168.931    23696166.629
  -7006214.665 4  -5459363.771 4  23757534.504    23757529.674
 -24280361.612 9 -18919726.742 9  20325068.384    20325067.010
  -4559267.275 9  -3552666.954 9  20784318.470    20784316.934
 99  1  3  0 13  0.0000000  0  7G27G15G 4G 9G26G 7G 2
 -16297354.440 5 -12699208.785 5  22338695.730    22338693.339
   3957139.774 4   3083492.273 4  23207442.904    23207441.073
  -9870543.471 4  -7691314.786 4  23165086.390    23165083.603
  -7725145.724 4  -6019580.784 4  23678806.374    23678804.224
  -6952931.063 4  -5417844.105 4  23767674.239    23767669.681
 -24290036.687 9 -18927265.728 9  20323227.296    20323225.614
  -4544337.167 9  -3541033.075 9  20787159.475    20787157.832
 99  1  3  0 13 30.0000000  0  7G27G15G 4G 9G26G 7G 2
 -16193477.010 5 -12618265.332 5  22358463.226    22358460.763
   4028750.135 4   3139292.564 4  23221069.645    23221067.646
  -9979518.875 4  -7776230.528 4  23144349.212    23144346.218
  -7816093.213 4  -6090448.847 4  23661499.477    23661497.368
  -6899310.336 4  -5376061.737 4  23777877.259    23777874.344
 -24299363.263 9 -18934533.160 9  20321452.363    20321450.751
  -4529108.787 9  -3529166.774 9  20790057.291    20790055.716
 99  1  3  0 14  0.0000000  0  7G27G15G 4G 9G26G 7G 2
 -16089308.383 5 -12537094.966 5  22378285.743    22378283.340
   4100830.914 4   3195459.417 4  23234786.211    23234783.687
 -10088326.777 4  -7861015.781 4  23123643.214    23123640.174
  -7906765.418 4  -6161102.435 4  23644245.147    23644242.233
  -6845355.404 4  -5334018.927 4  23788143.824    23788140.500
 -24308359.356 9 -18941543.072 9  20319740.430    20319738.870
  -4513609.847 9  -3517089.649 9  20793006.593    20793005.170
 99  1  3  0 14 30.0000000  0  7G27G15G 4G 9G26G 7G 2
 -15984862.106 5 -12455708.244 5  22398161.449    22398158.406
   4173387.493 4   3251997.023 4  23248593.579    23248591.024
 -10196974.742 4  -7945676.393 4  23102967.905    23102965.293
  -7997168.111 4  -6231545.985 4  23627042.911    23627039.947
  -6791054.693 4  -5291706.701 4  23798476.724    23798473.570
 -24317016.411 9 -18948288.798 9  20318093.011    20318091.600
  -4497829.905 9  -3504793.562 9  20796009.310    20796007.961
 99  1  3  0 15  0.0000000  0  7G27G15G 4G 9G26G 7G 2
 -15880144.158 5 -12374109.832 5  22418088.779    22418085.983
   4246419.345 4   3308904.967 4  23262490.852    23262488.991
 -10305467.952 4  -8030216.421 4  23082322.523    23082319.360
  -8087307.330 4  -6301784.205 4  23609889.812    23609886.829
  -6736395.770 4  -5249115.323 4  23808877.939    23808875.044
 -24325324.180 9 -18954762.355 9  20316511.850    20316510.792
  -4481758.814 9  -3492270.610 9  20799067.394    20799066.051
 99  1  3  0 15 30.0000000  0  7G27G15G 4G 9G26G 7G 2
 -15775162.868 5 -12292306.221 5  22438065.246    22438063.442
   4319915.718 4   3366174.881 4  23276476.803    23276474.832
 -10413828.430 4  -8114653.016 4  23061702.181    23061699.059
  -8177182.361 4  -6371816.578 4  23592786.082    23592783.526
  -6681381.896 4  -5206247.375 4  23819346.494    23819343.296
 -24333273.779 9 -18960956.819 9  20314999.116    20314998.035
  -4465394.429 9  -3479519.115 9  20802181.397    20802180.176
 99  1  3  0 16  0.0000000  0  7G27G15G 4G 9G 7G 2G26
 -15669920.511 5 -12210299.179 5  22458092.543    22458089.795
   4393868.724 4   3423800.613 4  23290549.543    23290547.546
 -10522060.229 4  -8198989.350 4  23041105.855    23041103.050
  -8266802.044 4  -6441650.007 4  23575732.743    23575729.440
 -24340861.274 9 -18966869.120 9  20313555.211    20313554.044
  -4448739.234 9  -3466541.018 9  20805350.802    20805349.442
  -6626035.100 4  -5163119.999 4  23829878.843    23829876.461
 99  1  3  0 16 30.0000000  0  7G27G15G 4G 9G 7G 2G26
 -15564390.500 5 -12128067.993 5  22478174.463    22478171.717
   4468283.300 4   3481785.999 4  23304710.380    23304707.866
 -10630135.489 4  -8283203.722 4  23020539.956    23020537.024
  -8356163.554 4  -6511282.224 4  23558727.791    23558724.116
 -24348081.119 9 -18972494.940 9  20312181.181    20312180.228
  -4431780.037 9  -3453326.037 9  20808578.170    20808576.582
  -6570372.197 4  -5119746.290 4  23840471.545    23840469.624
 99  1  3  0 17  0.0000000  0  7G27G15G 4G 9G 7G 2G26
 -15458572.992 5 -12045612.782 5  22498310.729    22498308.609
   4543161.610 4   3540132.738 4  23318959.038    23318956.914
 -10738034.176 4  -8367280.473 4  23000007.053    23000004.440
  -8445254.058 4  -6580703.256 4  23541773.458    23541770.906
 -24354936.571 9 -18977836.818 9  20310876.847    20310875.705
  -4414521.989 9  -3439878.183 9  20811862.209    20811860.712
  -6514380.430 4  -5076116.349 4  23851127.154    23851123.637
 99  1  3  0 17 30.0000000  0  7G27G15G 4G 9G 7G 2G26
 -15352472.617 5 -11962937.156 5  22518501.191    22518498.256
   4618517.492 4   3598851.606 4  23333298.522    23333296.824
 -10845716.510 5  -8451188.665 4  22979515.629    22979513.156
  -8534047.424 4  -6649892.804 4  23524876.718    23524874.082
 -24361413.679 9 -18982883.885 9  20309644.385    20309642.795
  -4396960.792 9  -3426194.111 9  20815204.038    20815202.588
  -6458048.182 4  -5032221.084 4  23861846.226    23861842.397
 99  1  3  0 18  0.0000000  0  7G27G15G 4G 7G 2G 9G26
 -15246091.055 5 -11880042.433 5  22538744.532    22538742.147
   4694339.916 4   3657934.009 4  23347726.939    23347724.976
 -10953173.611 4  -8534921.343 4  22959067.332    22959064.458
 -24367530.372 9 -18987650.113 9  20308480.384    20308478.932
  -4379115.145 9  -3412288.390 9  20818599.801    20818598.315
  -8622561.347 4  -6718864.557 4  23508033.382    23508029.971
  -6401389.991 4  -4988071.845 4  23872627.753    23872624.124
 99  1  3  0 18 30.0000000  0  7G27G15G 4G 9G 7G 2G26
 -15139433.674 5 -11796932.775 5  22559040.548    22559038.609
   4770620.786 4   3717373.648 4  23362242.958    23362240.211
 -11060414.925 5  -8618485.865 4  22938659.810    22938656.798
  -8710784.957 4  -6787610.105 4  23491244.236    23491242.081
 -24373293.872 9 -18992141.122 9  20307383.492    20307382.080
  -4360986.213 9  -3398161.931 9  20822049.594    20822048.124
  -6344399.259 4  -4943663.474 4  23883472.766    23883469.168
 99  1  3  0 19  0.0000000  0  7G27G15G 4G 7G 2G 9G26
 -15032521.522 5 -11713624.593 5  22579385.710    22579382.983
   4847353.678 4   3777165.510 4  23376844.891    23376842.445
 -11167468.560 5  -8701904.148 4  22918288.065    22918285.305
 -24378710.152 9 -18996361.570 9  20306352.877    20306351.311
  -4342569.480 9  -3383811.210 9  20825554.084    20825552.770
  -8798701.543 5  -6856116.438 4  23474514.642    23474512.067
  -6287072.038 4  -4898992.902 4  23894381.791    23894378.704
 99  1  3  0 19 30.0000000  0  7G27G15G 4G 7G 2G 9G26
 -14925344.671 5 -11630110.155 5  22599780.590    22599777.893
   4924532.169 4   3837304.599 4  23391531.409    23391529.512
 -11274348.411 5  -8785187.023 4  22897949.046    22897946.554
 -24383782.965 9 -19000314.385 9  20305387.551    20305386.181
  -4323863.440 9  -3369235.057 9  20829113.782    20829112.481
  -8886309.768 4  -6924382.469 4  23457843.466    23457840.335
  -6229432.212 4  -4854078.734 4  23905350.380    23905348.509
 99  1  3  0 20  0.0000000  0  7G27G15G 4G 7G 2G 9G26
 -14817893.260 5 -11546381.783 5  22620227.944    22620225.549
   5002148.558 4   3897784.904 4  23406301.434    23406299.243
 -11381067.601 5  -8868344.688 5  22877641.270    22877638.805
 -24388529.682 9 -19004013.094 9  20304484.061    20304482.949
  -4304867.497 9  -3354433.007 9  20832728.436    20832727.102
  -8973613.132 4  -6992410.967 4  23441229.826    23441227.014
  -6171485.797 4  -4808925.694 4  23916376.912    23916374.764
 99  1  3  0 20 30.0000000  0  7G27G15G 4G 7G 2G 9G26
 -14710187.348 5 -11462455.093 5  22640723.283    22640720.830
   5080205.107 4   3958608.198 4  23421154.675    23421152.825
 -11487620.705 5  -8951372.936 5  22857364.526    22857361.993
 -24392950.711 9 -19007458.017 9  20303642.604    20303641.424
  -4285571.997 9  -3339397.541 9  20836400.271    20836398.865
  -9060599.029 5  -7060192.068 4  23424676.730    23424674.292
  -6113230.298 4  -4763531.778 4  23927461.923    23927459.418
 99  1  3  0 21  0.0000000  0  7G27G15G 4G 7G 2G 9G26
 -14602230.626 5 -11378332.951 5  22661267.285    22661264.669
   5158704.922 4   4019776.887 4  23436092.667    23436090.619
 -11593990.903 5  -9034258.675 5  22837123.030    22837120.360
 -24397046.135 9 -19010649.223 9  20302863.314    20302862.156
  -4265973.370 9  -3324125.869 9  20840129.843    20840128.398
  -9147268.593 5  -7127726.724 4  23408183.080    23408181.687
  -6054672.905 4  -4717902.622 4  23938605.844    23938601.645
 99  1  3  0 21 30.0000000  0  7G27G15G 4G 7G 2G 9G26
 -14494029.901 5 -11294020.695 5  22681857.064    22681854.773
   5237640.394 4   4081285.064 4  23451113.659    23451111.824
 -11700156.872 5  -9116985.245 5  22816920.308    22816917.519
 -24400822.240 9 -19013591.612 9  20302144.930    20302143.550
  -4246072.638 9  -3308618.792 9  20843916.656    20843915.433
  -9233637.376 4  -7195026.970 4  23391748.917    23391745.521
  -5995821.973 4  -4672044.748 4  23949805.384    23949801.797
 99  1  3  0 22  0.0000000  0  7G27G15G 4G 7G 2G 9G26
 -14385603.245 5 -11209532.392 5  22702490.079    22702487.093
   5317015.075 4   4143135.485 4  23466218.687    23466216.336
 -11806097.995 5  -9199536.623 5  22796760.550    22796757.610
 -24404264.992 9 -19016274.249 9  20301489.893    20301488.379
  -4225853.725 9  -3292863.784 9  20847764.304    20847762.983
  -9319702.269 5  -7262090.414 4  23375370.621    23375368.799
  -5936661.196 4  -4625945.408 4  23961064.161    23961059.869
 99  1  3  0 22 30.0000000  0  7G27G15G 4G 7G 2G 9G26
 -14276968.043 5 -11124881.583 5  22723162.712    22723159.828
   5396819.745 4   4205320.963 4  23481404.980    23481402.334
 -11911819.831 5  -9281917.125 5  22776641.687    22776639.472
 -24407368.005 9 -19018692.149 9  20300899.346    20300897.915
  -4205306.684 9  -3276853.092 9  20851674.331    20851672.946
  -9405468.657 5  -7328921.301 4  23359049.215    23359047.374
  -5877206.307 4  -4579616.915 4  23972378.057    23972372.953
 99  1  3  0 23  0.0000000  0  7G27G15G 4G 7G 2G 9G26
 -14168107.423 5 -11040055.109 5  22743878.250    22743875.351
   5477059.223 4   4267845.246 4  23496673.957    23496671.212
 -12017310.781 5  -9364117.719 5  22756567.129    22756565.537
 -24410118.365 9 -19020835.253 9  20300375.838    20300374.426
  -4184421.097 9  -3260578.597 9  20855648.811    20855647.422
  -9490929.114 4  -7395513.787 4  23342786.722    23342784.788
  -5817449.349 4  -4533053.080 4  23983747.792    23983743.616
 99  1  3  0 23 30.0000000  0  7G27G15G 4G 7G 2G 9G26
 -14059016.784 5 -10955049.421 5  22764637.355    22764634.647
   5557728.047 4   4330704.056 4  23512024.522    23512021.592
 -12122572.194 5  -9446139.455 5  22736537.223    22736534.384
 -24412516.005 9 -19022703.517 9  20299919.422    20299917.921
  -4163203.755 9  -3244045.590 9  20859686.229    20859684.954
  -9576078.132 5  -7461863.584 4  23326583.471    23326581.875
  -5757386.761 4  -4486251.002 4  23995175.571    23995174.119
 99  1  3  0 24  0.0000000  0  7G27G15G 4G 7G 2G 9G26
 -13949672.232 5 -10869845.879 4  22785444.641    22785442.326
   5638831.744 4   4393901.745 4  23527458.118    23527455.337
 -12227604.352 5  -9527982.554 5  22716549.626    22716547.549
 -24414543.279 9 -19024283.183 9  20299533.730    20299532.347
  -4141660.928 9  -3227258.960 9  20863785.635    20863784.389
  -9660891.428 5  -7527951.799 4  23310444.524    23310442.081
  -5697009.552 4  -4439203.770 4  24006666.835    24006664.693
 99  1  3  0 24 30.0000000  0  7G27G15G 4G 7G 2G 9G26
 -13840057.453 5 -10784431.754 4  22806303.843    22806301.476
   5720363.229 4   4457432.771 4  23542972.657    23542970.636
 -12332420.444 5  -9609657.293 5  22696603.214    22696601.544
 -24416218.596 9 -19025588.591 9  20299215.019    20299213.560
  -4119819.771 9  -3210239.867 9  20867941.866    20867940.599
  -9745364.378 4  -7593774.790 4  23294369.264    23294366.953
  -5636333.040 4  -4391923.363 4  24018213.661    24018210.961
 99  1  3  0 25  0.0000000  0  7G27G15G 4G 7G 2G 9G26
 -13730169.729 5 -10698804.949 4  22827214.606    22827212.263
   5802315.365 4   4521291.591 4  23558568.145    23558565.707
 -12437017.118 5  -9691161.066 5  22676699.290    22676697.194
 -24417560.000 9 -19026633.806 9  20298959.666    20298958.278
  -4097712.833 9  -3193013.668 9  20872148.656    20872147.444
  -9829496.880 5  -7659332.522 4  23278359.193    23278357.609
  -5575356.885 4  -4344409.507 4  24029816.853    24029813.791
 99  1  3  0 25 30.0000000  0  7G27G15G 4G 7G 2G 9G26
 -13620015.256 5 -10612970.313 4  22848175.998    22848174.322
   5884678.944 4   4585471.000 4  23574241.732    23574238.999
 -12541395.006 5  -9772494.351 5  22656837.044    22656834.576
 -24418576.855 9 -19027426.127 9  20298765.994    20298764.873
  -4075348.569 9  -3175586.954 9  20876404.497    20876403.254
  -9913296.597 5  -7724630.922 4  23262412.865    23262411.065
  -5514098.466 4  -4296675.702 4  24041474.078    24041470.690
 99  1  3  0 26  0.0000000  0  7G27G15G 4G 7G 2G 9G26
 -13509600.876 5 -10526933.109 4  22869187.059    22869185.612
   5967461.980 4   4649977.275 4  23589994.753    23589992.009
 -12645547.984 5  -9853652.393 5  22637016.689    22637014.727
 -24419266.108 9 -19027963.175 9  20298634.698    20298633.794
  -4052716.532 9  -3157951.586 9  20880711.251    20880709.783
  -9996764.714 5  -7789670.935 4  23246529.478    23246527.668
  -5452558.586 4  -4248722.521 4  24053184.423    24053181.722
 99  1  3  0 26 30.0000000  0  7G27G15G 4G 7G 2G 9G26
 -13398957.877 5 -10440717.775 4  22890242.103    22890240.077
   6050652.918 4   4714801.398 4  23605825.254    23605823.382
 -12749478.076 5  -9934636.752 5  22617239.603    22617237.676
 -24419647.928 9 -19028260.664 9  20298561.872    20298560.803
  -4029807.341 9  -3140100.254 9  20885070.698    20885069.131
 -10079930.517 5  -7854475.389 4  23230703.396    23230701.580
  -5390758.678 4  -4200566.689 4  24064943.436    24064941.578
 99  1  3  0 27  0.0000000  0  7G27G15G 4G 7G 2G 9G26
 -13288110.849 5 -10354343.479 4  22911335.730    22911334.197
   6134236.910 4   4779931.788 4  23621730.501    23621728.755
 -12853188.112 5 -10015449.643 5  22597504.240    22597502.156
 -24419723.731 9 -19028319.699 9  20298547.573    20298546.527
  -4006606.885 9  -3122021.965 9  20889485.670    20889484.342
 -10162812.508 5  -7919058.697 4  23214931.033    23214929.118
  -5328716.204 4  -4152221.878 4  24076750.236    24076746.521
 99  1  3  0 27 30.0000000  0  7G27G15G 4G 9G 7G 2G26
 -13177066.071 5 -10267815.075 4  22932466.576    22932464.881
   6218215.657 4   4845369.771 4  23637710.987    23637709.005
 -12956686.897 5 -10096097.931 5  22577808.652    22577807.092
 -10245403.070 5  -7983414.916 4  23199214.931    23199212.819
 -24419482.542 9 -19028131.731 9  20298593.605    20298592.507
  -3983087.280 9  -3103694.984 9  20893961.156    20893959.974
  -5266436.270 4  -4103692.071 4  24088601.743    24088598.578
 99  1  3  0 28  0.0000000  0  7G27G15G 4G 9G 7G 2G26
 -13065812.915 5 -10181124.287 4  22953637.395    22953635.556
   6302599.701 4   4911123.583 4  23653768.858    23653766.557
 -13059966.662 5 -10176575.553 5  22558154.981    22558153.624
 -10327684.284 5  -8047530.077 4  23183557.480    23183554.636
 -24418912.222 9 -19027687.301 9  20298702.131    20298700.722
  -3959226.038 9  -3085101.791 9  20898501.590    20898500.424
  -5203910.155 4  -4054970.438 4  24100498.942    24100497.777
 99  1  3  0 28 30.0000000  0  7G27G15G 4G 9G 7G 2G26
 -12954356.058 5 -10094274.792 4  22974847.295    22974845.439
   6387381.344 4   4977187.214 4  23669902.912    23669900.107
 -13163020.714 5 -10256877.295 5  22538544.161    22538543.360
 -10409643.690 5  -8111394.469 4  23167960.371    23167958.544
 -24418004.332 9 -19026979.829 9  20298874.746    20298873.316
  -3935020.346 9  -3066240.198 9  20903107.794    20903106.680
  -5141144.030 4  -4006061.753 4  24112443.567    24112441.232
 99  1  3  0 29  0.0000000  0  7G27G15G 4G 9G 7G 2G26
 -12842695.105 5 -10007266.257 4  22996095.762    22996093.645
   6472563.839 4   5043563.191 4  23686112.332    23686109.917
 -13265838.244 5 -10336994.737 5  22518978.622    22518977.379
 -10491251.363 5  -8174984.820 4  23152431.127    23152429.113
 -24416755.867 9 -19026006.970 9  20299112.398    20299111.192
  -3910476.279 9  -3047114.937 9  20907778.602    20907777.445
  -5078128.603 4  -3956958.831 4  24124435.240    24124432.585
 99  1  3  0 29 30.0000000  0  7G27G15G 4G 9G 7G 2G26
 -12730833.182 4  -9920101.115 4  23017381.733    23017379.894
   6558158.335 4   5110260.208 4  23702400.628    23702398.019
 -13368393.462 5 -10416907.781 5  22499462.895    22499461.732
 -10572486.980 5  -8238285.232 4  23136972.891    23136970.521
 -24415151.151 9 -19024756.510 9  20299417.805    20299416.629
  -3885593.319 9  -3027725.602 9  20912513.603    20912512.234
  -5014841.856 4  -3907644.463 4  24136479.254    24136474.911
 99  1  3  0 30  0.0000000  0  7G27G15G 4G 9G 7G 2G26
 -12618788.142 5  -9832793.281 4  23038703.640    23038701.687
   6644159.014 4   5177273.718 4  23718765.875    23718763.092
 -13470669.123 5 -10496602.993 5  22480000.414    22479999.263
 -10653351.686 5  -8301296.621 4  23121584.828    23121582.865
 -24413187.622 9 -19023226.455 9  20299791.454    20299790.185
  -3860389.438 9  -3008086.198 9  20917309.691    20917308.322
  -4951277.269 4  -3858113.610 4  24148575.472    24148570.061
 99  1  3  0 30 30.0000000  0  7G27G15G 4G 9G 7G 2G26
 -12506557.626 4  -9745340.914 4  23060060.296    23060058.144
   6730573.029 4   5244609.312 4  23735210.177    23735206.890
 -13572651.433 5 -10576069.615 5  22460594.154    22460592.182
 -10733826.544 5  -8364004.244 4  23106270.129    23106268.244
 -24410854.883 9 -19021408.709 9  20300235.279    20300233.986
  -3834868.305 9  -2988199.585 9  20922166.191    20922164.940
  -4887412.335 4  -3808348.733 4  24160728.864    24160723.257
 99  1  3  0 31  0.0000000  0  7G27G15G 4G 9G26G 7G 2
 -12394151.419 4  -9657751.677 4  23081450.338    23081448.620
   6817387.882 4   5312257.246 4  23751730.225    23751727.253
 -13674350.925 5 -10655315.865 5  22441240.752    22441239.212
 -10813926.305 5  -8426419.584 4  23091027.277    23091026.066
  -4823252.741 4  -3758354.238 4  24172937.776    24172933.332
 -24408167.706 9 -19019314.784 9  20300746.465    20300745.265
  -3809043.625 9  -2968076.441 9  20927080.516    20927079.034
 99  1  3  0 31 30.0000000  0  7G27G15G 4G 9G26G 7G 2
 -12281560.203 5  -9570018.225 4  23102875.511    23102874.178
   6904597.597 4   5380212.875 4  23768325.168    23768323.000
 -13775778.640 5 -10734350.342 5  22421940.106    22421937.899
 -10893647.956 5  -8488540.294 4  23075857.457    23075855.672
  -4758805.545 4  -3708135.632 4  24185200.928    24185197.822
 -24405124.981 9 -19016943.811 9  20301325.476    20301324.267
  -3782918.384 9  -2947719.093 9  20932052.035    20932050.515
 99  1  3  0 32  0.0000000  0  7G27G15G 4G 9G 7G 2G26
 -12168773.371 4  -9482132.377 4  23124338.145    23124336.782
   6992188.615 4   5448465.617 4  23784993.349    23784991.709
 -13876956.886 5 -10813190.426 5  22402686.059    22402684.693
 -10972990.164 5  -8550365.330 4  23060758.950    23060757.400
 -24401751.294 9 -19014314.943 9  20301967.532    20301966.327
  -3756496.701 9  -2927130.752 9  20937079.854    20937078.746
  -4694100.911 4  -3657716.418 4  24197513.182    24197510.995
 99  1  3  0 32 30.0000000  0  7G27G15G 4G 7G 2G 9G26
 -12055761.898 4  -9394071.495 4  23145844.087    23145841.927
   7080167.224 4   5517020.380 4  23801735.479    23801733.704
 -13977872.721 5 -10891826.040 5  22383481.923    22383480.493
 -24398043.830 9 -19011425.992 9  20302672.986    20302671.823
  -3729760.076 9  -2906297.004 9  20942167.639    20942166.561
 -11051945.491 5  -8611888.898 4  23045734.614    23045732.528
  -4629146.966 4  -3607102.961 4  24209873.669    24209871.474
 99  1  3  0 33  0.0000000  0  8G14G27G15G 4G 7G 2G 9G26
        -0.52314        -0.70114  25345981.422    25345979.446
 -11942539.825 5  -9305846.470 4  23167388.711    23167387.905
   7168518.502 4   5585865.540 4  23818548.324    23818545.719
 -14078534.114 5 -10970263.387 5  22364326.823    22364325.062
 -24394024.742 9 -19008294.220 9  20303437.967    20303436.786
  -3702710.793 9  -2885219.627 9  20947314.893    20947313.539
 -11130529.445 5  -8673123.090 4  23030779.993    23030778.146
  -4563981.477 4  -3556324.638 4  24222274.684    24222272.058
 99  1  3  0 33 30.0000000  0  8G14G27G15G 4G 7G 2G 9G26
    -60247.667 4    -46946.456 4  25334516.657    25334514.890
 -11829104.509 4  -9217455.308 4  23188974.277    23188973.574
   7257233.058 4   5654993.765 4  23835429.964    23835427.081
 -14178937.256 5 -11048499.500 5  22345220.470    22345219.033
 -24389712.193 9 -19004933.774 9  20304258.573    20304257.327
  -3675351.322 9  -2863900.543 9  20952521.233    20952519.937
 -11208744.666 5  -8734069.951 4  23015896.232    23015894.399
  -4498624.983 4  -3505397.487 4  24234711.484    24234708.441
 99  1  3  0 34  0.0000000  0  8G14G27G15G 4G 7G 2G 9G26
   -120205.505 4    -93666.793 4  25323107.005    25323104.815
 -11715452.722 4  -9128895.466 4  23210603.091    23210601.038
   7346329.977 4   5724419.937 4  23852384.623    23852381.920
 -14279043.811 5 -11126504.508 5  22326171.114    22326169.226
 -24385083.901 9 -19001327.295 9  20305139.226    20305138.091
  -3647650.176 9  -2842315.225 9  20957792.514    20957791.402
 -11286594.716 5  -8794732.255 4  23001081.301    23001079.869
  -4433052.723 4  -3454302.217 4  24247190.038    24247186.485
 99  1  3  0 34 30.0000000  0  8G14G27G15G 4G 7G 2G 9G26
   -179887.042 4   -140171.823 4  25311750.280    25311748.582
 -11601619.155 4  -9040193.974 4  23232264.127    23232262.629
   7435794.569 4   5794132.586 4  23869408.971    23869405.764
 -14378859.741 5 -11204283.058 5  22307176.367    22307175.051
 -24380148.457 9 -18997481.483 9  20306078.263    20306077.283
  -3619617.741 9  -2820471.759 8  20963126.673    20963125.520
 -11364103.326 5  -8855128.496 4  22986332.327    22986330.539
  -4367260.316 4  -3403035.390 4  24259709.583    24259707.812
 99  1  3  0 35  0.0000000  0  8G14G27G15G 4G 7G 2G 9G26
   -239287.423 4   -186457.780 4  25300446.251    25300444.161
 -11487613.661 4  -8951358.520 4  23253958.097    23253956.626
   7525630.958 4   5864134.958 4  23886504.349    23886500.450
 -14478376.800 5 -11281828.728 5  22288238.873    22288237.639
 -24374902.118 9 -18993393.413 9  20307076.522    20307075.446
  -3591249.618 9  -2798366.718 9  20968525.098    20968523.747
 -11441252.849 5  -8915244.944 4  22971650.609    22971648.948
  -4301231.901 4  -3351584.675 4  24272273.914    24272272.056
 99  1  3  0 35 30.0000000  0  8G14G27G15G 4G 7G 2G 9G26
   -298401.088 4   -232520.307 4  25289197.973    25289194.662
 -11373442.703 4  -8862394.098 4  23275684.657    23275683.197
   7615833.481 4   5934422.625 4  23903669.018    23903665.711
 -14577596.495 5 -11359142.681 5  22269358.123    22269357.037
 -24369340.593 9 -18989059.743 9  20308134.927    20308133.705
  -3562556.612 9  -2776008.522 9  20973985.311    20973983.997
 -11518048.432 5  -8975085.570 5  22957037.373    22957035.568
  -4234945.526 4  -3299932.961 4  24284887.360    24284885.507
 99  1  3  0 36  0.0000000  0  8G14G27G15G 4G 7G 2G 9G26
   -357235.087 4   -278364.888 4  25278002.461    25277999.383
 -11259122.698 4  -8773313.559 4  23297440.109    23297436.917
   7706395.784 4   6004990.641 4  23920902.495    23920899.212
 -14676531.987 5 -11436235.188 5  22250531.052    22250529.693
 -24363463.895 9 -18984480.485 9  20309253.294    20309252.173
  -3533545.764 9  -2753402.658 9  20979505.825    20979504.444
 -11594497.796 5  -9034656.413 5  22942489.431    22942487.480
  -4168392.897 4  -3248073.773 4  24297551.622    24297550.148
 99  1  3  0 36 30.0000000  0  8G 2G14G27G15G 4G 7G 9G26
  -3504232.247 9  -2730560.949 8  20985083.867    20985082.395
   -415796.414 4   -323996.985 4  25266858.714    25266857.051
 -11144646.086 4  -8684111.030 4  23319223.227    23319220.288
   7797311.240 4   6075833.835 4  23938202.901    23938200.899
 -14775193.760 5 -11513114.408 5  22231756.124    22231755.150
 -24357279.458 9 -18979661.429 9  20310429.953    20310428.889
 -11670579.644 5  -9093940.896 4  22928011.329    22928009.807
  -4101593.161 4  -3196022.025 4  24310263.701    24310261.272
 99  1  3  0 37  0.0000000  0  8G 2G14G27G15G 4G 7G 9G26
  -3474624.475 9  -2707489.953 8  20990718.093    20990716.766
   -474070.845 4   -369405.626 4  25255768.961    25255766.659
 -11030002.538 4  -8594778.344 4  23341039.212    23341037.132
   7888579.895 4   6146952.255 4  23955570.416    23955569.691
 -14873571.102 5 -11589771.995 5  22213035.537    22213034.268
 -24350782.971 9 -18974599.216 9  20311666.203    20311665.087
 -11746283.987 5  -9152931.200 5  22913605.867    22913603.511
  -4034554.705 4  -3143784.265 4  24323020.857    24323018.689
 99  1  3  0 37 30.0000000  0  8G 2G14G27G15G 4G 7G 9G26
  -3444718.640 9  -2684186.696 8  20996409.083    20996407.763
   -532066.616 4   -414597.044 4  25244732.655    25244730.630
 -10915190.368 4  -8505314.315 4  23362888.170    23362884.561
   7980190.920 4   6218337.470 4  23973003.037    23973002.721
 -14971675.211 6 -11666216.675 5  22194366.592    22194365.921
 -24343980.768 9 -18969298.785 9  20312960.610    20312959.615
 -11821623.075 5  -9211636.902 4  22899268.492    22899266.956
  -3967299.580 4  -3091377.679 4  24335820.026    24335817.367
 99  1  3  0 38  0.0000000  0  8G 2G14G27G15G 4G 7G 9G26
  -3414492.310 9  -2660633.704 8  21002160.845    21002159.498
   -589785.047 4   -459572.371 4  25233748.785    25233745.820
 -10800198.036 4  -8415709.915 4  23384769.872    23384767.253
   8072145.969 4   6289990.740 4  23990501.233    23990500.231
 -15069489.602 6 -11742435.603 5  22175752.886    22175752.433
 -24336872.384 9 -18963759.771 9  20314313.214    20314312.306
 -11896575.435 5  -9270041.256 4  22885005.816    22885004.132
  -3899847.148 4  -3038817.339 4  24348656.254    24348652.666
 99  1  3  0 38 30.0000000  0  8G 2G14G27G15G 4G 7G 9G26
  -3383946.134 9  -2636831.478 8  21007973.644    21007972.472
   -647224.334 4   -504330.193 4  25222818.946    25222816.126
 -10685028.357 4  -8325967.280 4  23406685.287    23406683.734
   8164439.715 4   6361907.940 4  24008063.535    24008063.676
 -15167000.221 6 -11818417.829 5  22157197.383    22157196.861
 -24329459.106 9 -18957983.177 9  20315724.010    20315722.791
 -11971128.618 5  -9328134.563 5  22870818.752    22870816.268
  -3832216.624 4  -2986118.231 4  24361525.321    24361521.912
 99  1  3  0 39  0.0000000  0  8G 2G14G27G15G 4G 7G 9G26
  -3353070.745 9  -2612772.727 8  21013849.052    21013847.857
   -704384.794 4   -548870.750 4  25211941.712    25211938.905
 -10569677.128 4  -8236083.168 4  23428636.701    23428633.973
   8257072.502 4   6434089.334 4  24025691.156    24025690.648
 -15264193.361 6 -11894152.663 5  22138702.246    22138701.353
 -24321735.069 9 -18951964.434 9  20317193.794    20317192.511
 -12045274.577 5  -9385910.546 5  22856709.772    22856707.330
  -3764400.316 4  -2933274.353 4  24374430.017    24374426.083
 99  1  3  0 39 30.0000000  0  8G 2G14G27G15G 4G 7G 9G26
  -3321860.860 9  -2588453.328 8  21019788.086    21019786.744
   -761271.888 4   -593198.322 4  25201115.799    25201112.951
 -10454146.287 4  -8146059.176 4  23450621.362    23450619.142
   8350038.133 4   6506530.127 4  24043381.928    24043381.714
 -15361073.767 6 -11969643.819 5  22120266.613    22120265.634
 -24313704.430 9 -18945706.781 9  20318722.150    20318720.899
 -12119001.435 5  -9443359.968 4  22842678.513    22842677.196
  -3696411.296 4  -2880295.881 4  24387367.833    24387363.421
 99  1  3  0 40  0.0000000  0  8G 2G14G27G15G 4G 7G 9G26
  -3290328.678 9  -2563882.792 8  21025788.486    21025786.986
   -817862.434 4   -637294.827 4  25190346.112    25190344.075
 -10338449.897 4  -8055906.108 4  23472637.778    23472635.690
   8443345.553 4   6579237.245 4  24061138.592    24061137.402
 -15457624.387 6 -12044877.992 5  22101893.788    22101892.772
 -24305352.730 9 -18939198.945 9  20320311.394    20320310.204
 -12192287.057 5  -9500465.575 5  22828733.611    22828731.449
  -3628232.717 4  -2827169.724 4  24400341.395    24400337.832
 99  1  3  0 40 30.0000000  0  8G 2G14G27G15G 4G 7G 9G26
  -3258493.834 9  -2539076.415 8  21031846.466    21031845.280
   -874155.799 4   -681159.657 4  25179633.433    25179631.329
 -10222617.412 4  -7965647.045 4  23494679.799    23494678.088
   8536988.503 4   6652205.795 4  24078957.949    24078956.463
 -15553863.610 6 -12119869.524 5  22083579.819    22083578.866
 -24296676.315 9 -18932438.087 9  20321962.315    20321961.177
 -12265137.551 5  -9557232.103 5  22814869.899    22814868.727
  -3559868.916 4  -2773899.224 4  24413350.781    24413348.406
 99  1  3  0 41  0.0000000  0  7G 2G27G15G 4G 7G 9G26
  -3226352.470 9  -2514031.189 8  21037962.677    21037961.487
 -10106669.071 4  -7875297.650 4  23516744.180    23516742.082
   8630956.091 4   6725427.329 4  24096840.089    24096837.499
 -15649810.030 6 -12194632.897 5  22065321.780    22065320.598
 -24287686.322 9 -18925432.882 9  20323672.952    20323671.979
 -12337565.160 5  -9613669.135 5  22801087.994    22801086.172
  -3491322.946 4  -2720486.783 4  24426394.691    24426391.998
 99  1  3  0 41 30.0000000  0  8G 2G 4G14G27G15G 7G 9G26
  -3193877.525 9  -2488726.032 8  21044142.558    21044141.238
 -15745455.028 6 -12269161.392 5  22047120.912    22047119.907
        -0.23714        -0.26114  25158378.917    25158377.837
  -9990606.464 4  -7784859.261 4  23538830.434    23538828.166
   8725260.154 4   6798911.073 4  24114785.858    24114782.572
 -24278368.343 9 -18918172.099 9  20325446.159    20325445.056
 -12409575.903 5  -9669781.313 5  22787384.323    22787382.927
  -3422576.938 4  -2666918.469 4  24439476.202    24439474.117
 99  1  3  0 42  0.0000000  0  7G 2G 4G 9G27G15G26G 7
  -3161060.272 9  -2463154.142 8  21050387.427    21050386.086
 -15840793.017 6 -12343450.662 5  22028978.377    22028977.391
 -12481194.591 5  -9725588.016 5  22773756.252    22773753.875
  -9874435.466 4  -7694336.404 4  23560936.840    23560934.330
   8819898.844 4   6872655.535 4  24132795.417    24132792.156
  -3353620.449 4  -2613186.147 4  24452598.077    24452595.377
 -24268724.399 9 -18910657.316 9  20327281.231    20327280.032
 99  1  3  0 42 30.0000000  0  7G 2G 4G 9G27G15G 7G26
  -3127896.344 9  -2437312.110 8  21056698.278    21056697.010
 -15935821.837 6 -12417499.028 5  22010894.841    22010894.139
 -12552439.751 5  -9781103.640 5  22760197.864    22760197.064
  -9758134.840 4  -7603712.533 4  23583067.540    23583065.817
   8914865.276 4   6946655.381 4  24150867.111    24150863.718
 -24258765.990 9 -18902897.495 9  20329176.353    20329175.205
  -3284458.487 4  -2559293.707 4  24465759.603    24465755.970
 99  1  3  0 43  0.0000000  0  8G 2G 4G 9G14G27G15G 7G26
  -3094376.804 9  -2411192.979 8  21063076.860    21063075.457
 -16030518.670 6 -12491288.698 5  21992874.810    21992873.923
 -12623308.345 5  -9836325.869 5  22746712.879    22746711.124
        -0.65014        -0.78914  25126952.767    25126950.622
  -9641670.767 4  -7512961.261 4  23605230.548    23605227.944
   9010167.609 4   7020916.984 4  24169002.087    24168999.394
 -24248490.815 9 -18894890.843 9  20331131.621    20331130.574
  -3215070.513 4  -2505225.156 4  24478964.330    24478960.145
 99  1  3  0 43 30.0000000  0  8G 2G 4G 9G14G27G15G 7G26
  -3060527.466 9  -2384816.868 8  21069518.131    21069516.751
 -16124886.527 6 -12564822.026 5  21974917.080    21974916.333
 -12693795.050 5  -9891250.499 5  22733298.919    22733297.642
    -54381.094 4    -42375.107 4  25116603.675    25116601.789
  -9525044.113 4  -7422083.386 4  23627424.288    23627419.879
   9105799.169 4   7095435.128 4  24187200.312    24187197.464
 -24237903.355 9 -18886640.856 9  20333146.461    20333145.325
  -3145471.949 4  -2450992.522 4  24492208.146    24492205.431
 99  1  3  0 44  0.0000000  0  8G 2G 4G 9G14G27G15G 7G26
  -3026374.034 9  -2358203.800 8  21076017.147    21076016.061
 -16218924.125 6 -12638098.014 5  21957022.225    21957021.876
 -12763882.332 6  -9945863.912 5  22719961.528    22719960.474
   -108430.076 4    -84491.121 4  25106318.490    25106316.533
  -9408267.267 4  -7331088.437 4  23649644.817    23649643.383
   9201749.728 4   7170201.819 4  24205458.943    24205456.244
 -24227015.446 9 -18878156.754 9  20335218.345    20335217.096
  -3075677.247 4  -2396607.050 4  24505489.482    24505486.972
 99  1  3  0 44 30.0000000  0  8G 2G 4G 9G14G27G15G 7G26
  -2991928.258 9  -2331362.931 8  21082571.980    21082570.810
 -16312645.600 6 -12711127.680 5  21939187.496    21939186.923
 -12833553.670 6 -10000153.210 5  22706703.006    22706702.258
   -162169.666 4   -126366.069 4  25096091.513    25096089.403
  -9291358.215 4  -7239990.377 4  23671892.698    23671889.678
   9298003.989 4   7245205.157 4  24223775.179    24223773.165
 -24215835.345 9 -18869444.973 9  20337345.748    20337344.469
  -3005707.373 4  -2342085.072 4  24518805.037    24518801.117
 99  1  3  0 45  0.0000000  0  7G 2G 4G 9G27G15G26G 7
  -2957164.572 9  -2304274.341 8  21089187.406    21089186.188
 -16406049.532 6 -12783909.910 6  21921413.781    21921412.847
 -12902788.615 6 -10054102.462 5  22693528.921    22693527.175
  -9174334.187 4  -7148802.892 4  23694162.409    23694158.437
   9394558.734 4   7320442.638 4  24242148.246    24242147.545
  -2935574.880 4  -2287436.386 4  24532150.728    24532147.147
 -24204353.679 9 -18860498.211 9  20339530.374    20339529.268
 99  1  3  0 45 30.0000000  0  7G 2G 4G 9G27G15G 7G26
  -2922066.331 9  -2276925.054 8  21095866.428    21095865.112
 -16499112.560 6 -12856426.502 6  21903704.603    21903703.249
 -12971580.274 6 -10107706.290 5  22680437.232    22680436.946
  -9057202.419 4  -7057531.366 4  23716450.963    23716448.887
   9491417.219 4   7395916.810 4  24260579.785    24260579.477
 -24192562.693 9 -18851310.418 9  20341774.191    20341773.165
  -2865283.372 4  -2232663.798 4  24545526.993    24545524.073
 99  1  3  0 46  0.0000000  0  8G 2G 4G 9G14G27G15G 7G26
  -2886614.026 9  -2249299.878 8  21102612.794    21102611.555
 -16591805.940 6 -12928655.059 6  21886065.251    21886064.215
 -13039933.989 6 -10160968.887 5  22667430.444    22667429.362
         0.04914        -0.22814  25065755.123    25065753.758
  -8939951.584 4  -6966167.009 4  23738762.075    23738759.984
   9588582.626 4   7471630.137 4  24279070.074    24279069.584
 -24180460.886 9 -18841880.422 9  20344077.157    20344076.046
  -2794826.075 4  -2177762.030 4  24558934.108    24558932.127
 99  1  3  0 46 30.0000000  0  9G 2G 4G 9G14G27G15G 7G24G26
  -2850810.597 9  -2221401.100 8  21109425.929    21109424.686
 -16684131.647 6 -13000597.124 6  21868496.300    21868495.143
 -13107858.992 6 -10213897.404 5  22654504.519    22654503.632
    -52495.311 4    -40905.681 4  25055766.783    25055763.746
  -8822581.106 4  -6874709.521 4  23761097.775    23761094.559
   9686046.585 4   7547576.080 4  24297616.956    24297615.887
 -24168058.230 9 -18832216.001 9  20346437.235    20346436.016
        -0.34114        -0.44314  25043950.255    25043944.238
  -2724211.434 4  -2122737.678 4  24572371.173    24572369.975
 99  1  3  0 47  0.0000000  0  9G 4G 2G 9G14G27G15G 7G24G26
 -16776077.045 6 -13072242.842 6  21850999.779    21850998.636
  -2814668.885 9  -2193238.728 8  21116303.515    21116302.218
 -13175376.670 6 -10266508.527 5  22641656.580    22641655.674
   -104630.339 4    -81530.374 4  25045845.569    25045842.935
  -8705098.693 4  -6783164.753 4  23783454.598    23783451.848
   9783800.887 4   7623748.307 4  24316219.318    24316217.900
 -24155375.482 9 -18822333.324 9  20348850.836    20348849.575
   -112913.435 4    -87984.091 4  25022463.338    25022457.510
  -2653449.299 4  -2067598.379 4  24585837.437    24585834.114
 99  1  3  0 47 30.0000000  0  9G 2G 4G 9G14G27G15G 7G24G26
  -2778202.877 9  -2164823.654 8  21123242.589    21123241.479
 -16867627.997 6 -13143581.203 6  21833577.874    21833576.975
 -13242483.295 6 -10318799.359 5  22628886.457    22628885.412
   -156383.273 4   -121857.283 4  25035997.092    25035994.303
  -8587500.535 4  -6691529.857 4  23805830.640    23805828.536
   9881852.027 4   7700151.764 4  24334875.071    24334876.542
 -24142418.692 9 -18812237.104 9  20351316.346    20351315.244
   -225830.662 4   -175970.991 4  25000974.441    25000969.363
  -2582520.286 4  -2012329.030 4  24599334.651    24599331.005
 99  1  3  0 48  0.0000000  0 10G 4G 2G 9G14G27G15G 7G24G16G26
 -16958805.503 6 -13214628.565 6  21816227.303    21816226.702
  -2741422.391 9  -2136163.535 7  21130241.685    21130240.573
 -13309167.135 6 -10370760.737 5  22616196.831    22616195.589
   -207763.042 4   -161893.466 4  25026220.154    25026216.933
  -8469797.603 4  -6599813.206 4  23828230.071    23828227.708
   9980190.774 4   7776779.329 4  24353589.234    24353589.519
 -24129195.653 9 -18801933.418 9  20353832.489    20353831.537
   -338749.533 4   -263959.170 4  24979486.376    24979482.139
        -0.08914         0.46414  25198172.086    25198168.930
  -2511430.634 4  -1956934.513 4  24612862.346    24612859.443
 99  1  3  0 48 30.0000000  0 10G 4G 2G 9G14G27G15G 7G24G16G26
 -17049622.583 6 -13285395.077 6  21798945.621    21798944.778
  -2704328.216 9  -2107258.981 8  21137300.560    21137299.303
 -13375423.571 6 -10422389.071 5  22603588.806    22603587.633
   -258785.895 4   -201651.493 4  25016510.602    25016507.016
  -8351994.772 4  -6508018.801 4  23850647.854    23850644.409
  10078815.561 4   7853629.793 4  24372358.103    24372355.189
 -24115694.981 9 -18791413.400 9  20356401.507    20356400.691
   -451662.846 4   -351943.078 4  24957999.569    24957994.987
    -78032.216 4    -60803.771 4  25183322.364    25183320.136
  -2440177.576 4  -1901412.655 4  24626420.845    24626418.322
 99  1  3  0 49  0.0000000  0 10G 4G 2G 9G14G27G15G 7G24G16G26
 -17140073.629 6 -13355876.370 6  21781733.010    21781732.648
  -2666908.843 9  -2078101.030 8  21144421.433    21144420.142
 -13441252.574 6 -10473684.343 5  22591061.873    22591060.763
   -309486.870 4   -241158.729 4  25006862.140    25006859.130
  -8234085.808 4  -6416141.704 4  23873083.977    23873080.433
  10177726.643 4   7930703.359 4  24391179.900    24391177.731
 -24101911.866 9 -18780673.298 9  20359024.207    20359023.379
   -564574.092 4   -439925.431 4  24936513.162    24936508.403
   -155972.495 4   -121536.480 4  25168491.011    25168488.027
  -2368768.857 4  -1845769.500 4  24640010.291    24640007.396
 99  1  3  0 49 30.0000000  0 10G 4G 2G 9G14G27G15G 7G24G16G26
 -17230174.606 6 -13426084.882 6  21764587.556    21764586.881
  -2629170.549 9  -2048694.567 7  21151602.716    21151601.589
 -13506642.789 6 -10524637.704 5  22578618.672    22578617.230
   -359893.695 4   -280436.764 4  24997269.943    24997267.961
  -8116066.984 4  -6324178.944 4  23895542.972    23895539.985
  10276920.773 4   8007997.515 4  24410056.860    24410053.551
 -24087836.462 9 -18769705.438 9  20361702.886    20361701.827
   -677487.579 4   -527909.560 4  24915026.549    24915021.757
   -233827.668 4   -182202.834 4  25153675.168    25153671.507
  -2297209.592 4  -1790009.037 4  24653628.004    24653623.273
 99  1  3  0 50  0.0000000  0 10G 4G 2G 9G14G27G15G 7G24G16G26
 -17319932.234 6 -13496025.847 6  21747507.162    21747506.458
  -2591108.599 9  -2019035.904 7  21158845.493    21158844.494
 -13571601.536 6 -10575254.845 5  22566256.848    22566255.633
   -410009.828 4   -319488.274 4  24987733.201    24987730.976
  -7997942.109 4  -6232133.567 4  23918021.119    23918017.857
  10376390.228 4   8085506.210 4  24428985.666    24428982.409
 -24073466.022 9 -18758507.681 9  20364437.649    20364436.498
   -790416.332 4   -615905.630 4  24893535.665    24893531.242
   -311610.325 4   -242812.664 4  25138873.933    25138869.824
  -2225519.393 4  -1734146.545 4  24667269.955    24667265.816
 99  1  3  0 50 30.0000000  0 10G 4G 2G 9G14G27G15G 7G24G16G26
 -17409329.329 6 -13565685.876 6  21730495.326    21730494.531
  -2552706.385 9  -1989112.100 7  21166153.180    21166152.025
 -13636125.387 6 -10625533.111 5  22553978.934    22553977.215
   -459807.625 4   -358291.660 4  24978256.718    24978254.648
  -7879702.550 4  -6139998.872 4  23940521.095    23940517.687
  10476143.359 4   8163235.952 4  24447968.157    24447965.540
 -24058795.573 9 -18747076.148 9  20367229.295    20367228.332
   -903346.062 4   -703902.507 4  24872044.792    24872041.077
   -389307.188 4   -303355.615 4  25124088.218    25124085.508
  -2153703.690 4  -1678186.279 4  24680935.749    24680931.688
 99  1  3  0 51  0.0000000  0 10G 4G 2G 9G14G27G15G 7G24G16G26
 -17498371.846 6 -13635069.608 6  21713551.270    21713550.525
  -2513967.399 9  -1958925.876 7  21173524.977    21173523.782
 -13700210.812 6 -10675469.740 5  22541783.221    22541782.367
   -509274.227 4   -396836.973 4  24968843.228    24968841.180
  -7761374.311 4  -6047795.011 4  23963038.473    23963035.723
  10576166.155 4   8241175.826 4  24467000.896    24466999.222
 -24043842.256 9 -18735424.203 9  20370074.734    20370073.847
  -1016274.970 4   -791898.763 4  24850555.265    24850550.981
   -466931.444 4   -363841.945 4  25109316.200    25109313.528
  -2081782.910 4  -1622144.143 4  24694622.296    24694618.370
 99  1  3  0 51 30.0000000  0 10G 4G 2G 9G14G27G15G 7G24G16G26
 -17587062.510 6 -13704179.172 6  21696673.993    21696672.849
  -2474886.509 9  -1928473.231 7  21180961.847    21180960.861
 -13763840.796 6 -10725051.497 5  22529675.098    22529674.187
   -558360.960 4   -435086.329 4  24959502.649    24959500.356
  -7642975.958 4  -5955536.544 4  23985568.959    23985565.647
  10676459.944 4   8319326.857 4  24486086.467    24486084.426
 -24028598.445 9 -18723545.902 9  20372975.456    20372974.429
  -1129187.213 4   -879882.065 4  24829069.703    24829064.973
   -544489.335 4   -424276.649 4  25094558.282    25094554.237
  -2009732.304 4  -1566000.837 4  24708333.258    24708329.174
 99  1  3  0 52  0.0000000  0 10G 4G 2G 9G14G27G15G 7G24G16G26
 -17675387.682 6 -13773003.937 6  21679865.919    21679865.324
  -2435443.369 9  -1897738.310 7  21188467.717    21188466.561
 -13827002.932 6 -10774268.679 5  22517655.274    22517654.723
   -607026.938 4   -473007.815 4  24950241.230    24950239.566
  -7524518.393 4  -5863231.959 4  24008110.708    24008108.384
  10777028.747 4   8397692.191 4  24505223.936    24505222.061
 -24013057.842 9 -18711436.333 9  20375932.798    20375931.759
  -1242064.332 4   -967838.017 4  24807589.412    24807584.465
   -621974.293 4   -484654.534 4  25079812.088    25079809.661
  -1937534.877 4  -1509743.136 4  24722071.770    24722067.576
 99  1  3  0 52 30.0000000  0 10G 4G 2G 9G14G27G15G 7G24G16G26
 -17763354.611 6 -13841549.549 6  21663126.630    21663125.455
  -2395650.899 9  -1866731.188 7  21196039.817    21196038.753
 -13889683.189 6 -10823110.384 5  22505727.788    22505726.711
   -655269.970 4   -510599.761 4  24941060.641    24941058.921
  -7406004.696 4  -5770883.582 4  24030662.450    24030660.303
  10877866.849 4   8476267.366 4  24524412.891    24524411.055
 -23997225.374 9 -18699099.335 9  20378945.692    20378944.609
  -1354905.395 4  -1055765.856 4  24786116.041    24786111.009
   -699386.960 4   -544976.035 4  25065081.601    25065078.966
  -1865195.105 4  -1453374.491 4  24735837.114    24735832.631
 99  1  3  0 53  0.0000000  0 10G 4G 2G 9G14G27G15G 7G24G16G26
 -17850950.405 6 -13909805.969 6  21646457.452    21646456.615
  -2355514.027 9  -1835455.700 7  21203677.544    21203676.670
 -13951874.699 6 -10871571.225 5  22493893.147    22493892.165
   -703090.902 4   -547862.771 4  24931961.043    24931958.806
  -7287425.289 4  -5678484.070 4  24053228.111    24053225.134
  10978975.366 4   8555053.258 4  24543653.628    24543651.553
 -23981094.057 9 -18686529.466 9  20382015.337    20382014.275
  -1467719.321 4  -1143672.549 4  24764647.355    24764642.980
   -776717.790 4   -605233.721 4  25050366.233    25050363.293
  -1792687.594 4  -1396875.153 4  24749634.332    24749630.802
 99  1  3  0 53 30.0000000  0 11G 4G 2G 9G14G27G15G 7G24G16G26G 5
 -17938176.708 6 -13977774.475 6  21629858.873    21629857.714
  -2315058.215 9  -1803931.687 7  21211376.044    21211375.274
 -14013593.569 6 -10919663.795 5  22482148.313    22482147.421
   -750516.397 4   -584817.626 4  24922936.098    24922934.024
  -7168774.276 4  -5586028.707 4  24075805.755    24075804.278
  11080342.600 4   8634040.761 4  24562942.939    24562940.910
 -23964680.515 9 -18673739.682 9  20385138.677    20385137.580
  -1580527.131 4  -1231574.452 4  24743180.453    24743176.647
   -853953.723 4   -665417.592 4  25035669.718    25035666.627
  -1720022.641 4  -1340253.118 4  24763462.820    24763458.618
         0.25114         0.36414  25228628.575    25228624.811
 99  1  3  0 54  0.0000000  0 11G 4G 2G 9G14G27G15G 7G24G16G26G 5
 -18025014.236 6 -14045440.036 6  21613334.390    21613333.255
  -2274294.172 9  -1772167.499 7  21219133.341    21219132.255
 -14074856.352 6 -10967400.973 5  22470489.949    22470489.473
   -797579.063 4   -621489.782 4  24913980.182    24913978.482
  -7050032.713 4  -5493502.807 4  24098401.708    24098399.953
  11181962.476 4   8713225.140 4  24582279.723    24582278.449
 -23947993.478 9 -18660736.784 9  20388314.152    20388313.069
  -1693342.591 4  -1319482.331 4  24721711.715    24721708.226
   -931076.307 4   -725513.087 4  25020993.312    25020990.399
  -1647245.806 4  -1283543.906 4  24777311.108    24777308.268
    -94387.472 4    -73548.430 4  25210667.706    25210662.421
 99  1  3  0 54 30.0000000  0 11G 4G 2G 9G14G27G15G 7G24G16G26G 5
 -18111453.516 7 -14112795.277 6  21596885.142    21596884.640
  -2233236.774 9  -1740174.725 7  21226946.192    21226944.996
 -14135680.877 6 -11014796.656 5  22458916.183    22458915.013
   -844311.872 4   -657904.905 4  24905087.777    24905085.555
  -6931194.179 4  -5400901.335 4  24121016.499    24121014.252
  11283824.385 4   8792598.117 4  24601662.949    24601662.184
 -23931042.279 9 -18647528.043 9  20391539.851    20391538.800
  -1806190.098 4  -1407415.219 4  24700237.310    24700233.786
  -1008087.690 4   -785521.901 4  25006338.574    25006336.216
  -1574380.242 4  -1226765.537 4  24791177.006    24791174.060
   -188823.978 4   -147135.175 4  25192696.871    25192693.842
 99  1  3  0 55  0.0000000  0 11G 4G 2G 9G14G27G15G 7G24G16G26G 5
 -18197465.082 7 -14179817.238 6  21580517.608    21580517.066
  -2191855.258 9  -1707929.386 7  21234820.833    21234819.739
 -14196057.817 6 -11061843.561 5  22447426.638    22447425.447
   -890697.374 4   -694049.394 4  24896261.142    24896258.444
  -6812244.001 4  -5308212.909 4  24143650.877    24143649.843
  11385945.552 4   8872173.106 4  24621095.522    24621095.272
 -23913812.648 9 -18634102.343 9  20394818.419    20394817.337
  -1919039.020 4  -1495349.190 4  24678763.209    24678759.903
  -1084949.061 4   -845413.869 4  24991712.804    24991708.649
  -1501402.010 4  -1169899.390 4  24805063.164    24805061.746
   -283284.570 4   -220740.666 4  25174721.728    25174717.303
 99  1  3  0 55 30.0000000  0 10G 4G 2G 9G14G27G 7G24G16G26G 5
 -18283058.372 7 -14246513.269 6  21564229.880    21564229.162
  -2150133.759 9  -1675419.127 7  21242760.258    21242759.009
 -14255983.660 6 -11108538.962 5  22436022.757    22436021.507
   -936733.296 4   -729921.483 4  24887500.408    24887498.088
  -6693200.909 4  -5215452.020 4  24166304.460    24166302.939
 -23896309.882 9 -18620463.814 9  20398149.123    20398148.022
  -2031869.188 4  -1583268.543 4  24657291.920    24657288.664
  -1161672.103 4   -905198.028 4  24977112.365    24977107.754
  -1428336.545 4  -1112965.274 4  24818968.090    24818966.126
   -377765.010 4   -294361.550 4  25156742.132    25156739.764
 99  1  3  0 56  0.0000000  0 11G 4G 2G 9G14G27G15G 7G24G16G26G 5
 -18368232.011 7 -14312882.299 6  21548021.783    21548020.923
  -2108053.340 9  -1642629.190 7  21250767.901    21250766.463
 -14315445.980 6 -11154873.181 5  22424707.421    22424705.892
   -982400.774 4   -765506.474 4  24878809.335    24878807.832
  -6574078.494 4  -5122629.349 4  24188973.291    24188970.973
        -0.20214        -0.03214  24660106.154    24660105.601
 -23878518.236 9 -18606600.182 9  20401534.801    20401533.702
  -2144664.002 4  -1671160.398 4  24635826.983    24635824.094
  -1238271.912 4   -964886.173 4  24962535.696    24962530.926
  -1355181.156 4  -1055961.079 4  24832889.607    24832886.966
   -472253.619 4   -367988.789 4  25138760.651    25138757.431
 99  1  3  0 56 30.0000000  0 10G 4G 2G 9G14G27G 7G24G16G26G 5
 -18453017.810 7 -14378949.120 6  21531887.511    21531886.789
  -2065622.608 9  -1609566.278 7  21258842.095    21258840.792
 -14374440.296 6 -11200842.720 5  22413481.244    22413479.604
  -1027694.431 4   -800800.179 4  24870190.517    24870188.177
  -6454904.171 4  -5029766.207 4  24211650.840    24211648.817
 -23860449.122 9 -18592520.346 9  20404973.157    20404972.144
  -2257411.796 4  -1759015.634 4  24614371.892    24614368.518
  -1314764.945 4  -1024491.075 4  24947978.891    24947975.274
  -1281924.700 4   -998878.143 4  24846830.255    24846825.759
   -566765.711 4   -441634.292 4  25120774.490    25120772.261
 99  1  3  0 57  0.0000000  0 11G 4G 2G 9G14G27G15G 7G24G16G26G 5
 -18537422.615 7 -14444719.062 6  21515825.730    21515825.057
  -2022835.235 9  -1576225.467 7  21266984.429    21266983.048
 -14432958.476 6 -11246441.255 5  22402345.594    22402344.038
  -1072589.035 4   -835782.946 4  24861647.697    24861645.801
  -6335690.292 4  -4936872.320 4  24234336.777    24234333.183
        -0.56814        -0.19714  24699302.021    24699301.162
 -23842096.517 9 -18578219.606 9  20408465.452    20408464.485
  -2370091.597 4  -1846817.862 4  24592929.910    24592926.427
  -1391144.216 4  -1084007.337 4  24933445.571    24933442.264
  -1208564.808 4   -941714.625 4  24860790.093    24860785.681
   -661301.105 4   -515297.971 4  25102784.499    25102781.998
 99  1  3  0 57 30.0000000  0 11G 4G 2G 9G14G27G15G 7G24G16G26G 5
 -18621438.522 7 -14510185.970 7  21499838.052    21499837.584
  -1979703.696 9  -1542616.477 7  21275192.044    21275190.548
 -14490989.640 6 -11291660.293 5  22391302.538    22391301.213
  -1117073.866 4   -870446.397 4  24853182.187    24853180.320
  -6216435.484 4  -4843946.482 4  24257030.359    24257027.934
    103343.359 4     80527.566 4  24718967.415    24718966.924
 -23823456.232 9 -18563694.692 9  20412012.618    20412011.749
  -2482705.726 4  -1934568.932 4  24571499.878    24571497.013
  -1467409.313 4  -1143434.660 4  24918932.790    24918928.255
  -1135114.839 4   -884480.919 4  24874766.597    24874762.769
   -755878.123 4   -588994.123 4  25084787.195    25084785.281
 99  1  3  0 58  0.0000000  0 10G 4G 2G 9G14G27G 7G24G16G26G 5
 -18705046.699 7 -14575335.166 7  21483928.247    21483927.403
  -1936240.203 9  -1508748.821 7  21283462.874    21283461.589
 -14548538.103 6 -11336503.207 5  22380351.941    22380350.116
  -1161141.164 4   -904784.466 4  24844796.382    24844794.535
  -6097126.035 4  -4750978.027 4  24279734.463    24279730.915
 -23804524.541 9 -18548942.712 9  20415615.233    20415614.184
  -2595260.958 4  -2022274.174 4  24550080.091    24550077.889
  -1543536.046 4  -1202754.147 4  24904445.342    24904442.927
  -1061564.742 4   -827169.177 4  24888763.319    24888760.230
   -850493.769 4   -662720.369 4  25066781.396    25066779.972
 99  1  3  0 58 30.0000000  0 11G 4G 2G 9G14G27G 7G24G16G26G 5G 8
 -18788248.588 7 -14640167.773 7  21468095.445    21468094.773
  -1892451.565 9  -1474627.805 7  21291795.416    21291794.391
 -14605616.520 6 -11380979.853 5  22369489.790    22369488.535
  -1204800.624 4   -938804.753 4  24836488.198    24836486.949
  -5977766.733 4  -4657970.786 4  24302447.778    24302444.727
 -23785316.025 9 -18533975.032 9  20419270.532    20419269.281
  -2707766.718 4  -2109940.818 4  24528671.296    24528668.761
  -1619519.674 4  -1261962.116 4  24889985.462    24889984.493
   -987910.764 4   -769776.526 4  24902779.352    24902776.040
   -945163.036 4   -736488.421 4  25048766.042    25048764.285
        -0.18414        -0.43314  24910790.901    24910788.195
 99  1  3  0 59  0.0000000  0 12G 4G 2G 9G14G27G15G 7G24G16G26G 5G 8
 -18871032.693 7 -14704674.837 7  21452342.027    21452341.569
  -1848334.198 9  -1440250.636 7  21300190.753    21300189.967
 -14662232.631 6 -11425096.272 5  22358715.967    22358714.903
  -1248054.001 4   -972508.621 4  24828257.822    24828255.351
  -5858360.215 4  -4564926.764 4  24325169.939    24325167.009
        -0.12814        -0.07214  24778230.563    24778227.710
 -23765836.126 9 -18518795.887 9  20422977.518    20422976.305
  -2820232.753 4  -2197576.510 4  24507269.343    24507267.629
  -1695359.152 4  -1321057.806 4  24875553.697    24875552.188
   -914155.309 4   -712304.759 4  24916814.139    24916810.946
  -1039884.096 4   -810296.851 4  25030741.664    25030740.233
   -107409.545 4    -83695.967 4  24890351.678    24890349.080
 99  1  3  0 59 30.0000000  0 12G 4G 2G 9G14G27G15G 7G24G16G26G 5G 8
 -18953395.301 7 -14768853.462 7  21436668.799    21436668.693
  -1803883.438 9  -1405613.679 7  21308649.535    21308648.564
 -14718380.712 6 -11468847.988 5  22348031.607    22348030.259
  -1290907.873 4  -1005901.191 4  24820102.816    24820100.242
  -5738906.059 4  -4471845.606 4  24347900.470    24347899.086
    104257.763 4     81239.879 4  24798069.738    24798067.261
 -23746094.515 9 -18503412.800 9  20426734.172    20426733.221
  -2932659.797 4  -2285181.811 4  24485875.216    24485872.010
  -1771050.783 4  -1380038.292 4  24861151.264    24861146.632
   -840298.141 4   -654753.761 4  24930868.750    24930864.921
  -1134643.382 4   -884135.106 4  25012710.304    25012706.199
   -214629.797 4   -167244.144 4  24869947.781    24869945.358
 99  1  3  1  0  0.0000000  0 12G 4G 2G 9G14G27G15G 7G24G16G26G 5G 8
 -19035334.285 7 -14832701.991 7  21421076.330    21421076.143
  -1759078.366 9  -1370700.635 7  21317175.566    21317174.374
 -14774066.059 6 -11512239.137 5  22337434.937    22337433.700
  -1333371.272 4  -1038989.484 4  24812022.030    24812019.586
  -5619410.442 4  -4378732.086 4  24370639.847    24370637.833
    208736.793 4    162652.085 4  24817950.669    24817949.944
 -23726090.167 9 -18487824.982 9  20430540.761    20430539.800
  -3045044.575 4  -2372754.181 4  24464488.113    24464486.043
  -1846602.597 4  -1438909.761 4  24846774.398    24846771.091
   -766326.793 4   -597113.784 4  24944945.052    24944941.273
  -1229429.443 4   -957994.256 4  24994672.337    24994670.038
   -321660.232 4   -250644.402 4  24849580.828    24849577.663
 99  1  3  1  0 30.0000000  0 12G 4G 2G 9G14G27G15G 7G24G16G26G 5G 8
 -19116868.201 7 -14896234.884 7  21405561.035    21405560.757
  -1713924.898 9  -1335516.115 7  21325767.869    21325766.779
 -14829280.392 6 -11555263.268 5  22326927.687    22326926.901
  -1375454.053 4  -1071781.214 4  24804014.106    24804011.697
  -5499883.495 4  -4285594.224 4  24393385.627    24393382.488
    313428.931 4    244230.424 4  24837873.351    24837872.510
 -23705826.972 9 -18472035.471 9  20434396.631    20434395.654
  -3157386.760 4  -2460293.409 4  24443109.937    24443108.333
  -1922033.376 4  -1497686.943 4  24832420.887    24832416.573
   -692253.796 4   -539394.600 4  24959040.630    24959036.928
  -1324259.230 4  -1031887.525 4  24976627.488    24976623.689
   -428515.392 4   -333908.062 4  24829246.850    24829244.499
 99  1  3  1  1  0.0000000  0 12G 4G 2G 9G14G27G15G 7G24G16G26G 5G 8
 -19197990.351 7 -14959446.920 7  21390123.556    21390123.156
  -1668425.211 9  -1300061.812 7  21334426.265    21334425.279
 -14884016.586 6 -11597914.830 5  22316511.884    22316511.079
  -1417150.353 4  -1104271.787 4  24796079.825    24796076.690
  -5380330.027 4  -4192435.714 4  24416135.619    24416132.966
    418334.799 4    325975.277 4  24857836.560    24857835.655
 -23685310.519 9 -18456048.617 9  20438300.796    20438299.978
  -3269687.188 4  -2547800.033 4  24421740.995    24421738.002
  -1997331.620 4  -1556360.861 4  24818091.943    24818087.755
   -618102.597 4   -481614.476 4  24973151.860    24973148.442
  -1419122.136 4  -1105806.618 4  24958575.386    24958572.879
   -535193.533 4   -417033.781 4  24808946.739    24808944.104
 99  1  3  1  1 30.0000000  0 12G 4G 2G 9G14G27G15G 7G24G16G26G 5G 8
 -19278675.318 7 -15022318.295 7  21374769.489    21374769.114
  -1622564.329 9  -1264326.059 7  21343153.249    21343152.208
 -14938238.189 6 -11640165.420 5  22306193.595    22306192.833
  -1458442.539 4  -1136447.466 4  24788222.122    24788219.409
  -5260733.711 4  -4099243.738 4  24438893.451    24438892.002
    523466.055 4    407895.770 4  24877843.377    24877841.429
 -23664518.686 9 -18439847.183 9  20442257.371    20442256.650
  -3381939.924 4  -2635269.494 4  24400379.045    24400376.433
  -2072475.011 4  -1614914.093 4  24803791.654    24803788.960
   -543863.037 4   -423765.521 4  24987278.789    24987276.084
  -1513998.282 4  -1179736.032 4  24940521.635    24940518.211
   -641680.304 4   -500010.357 4  24788682.681    24788680.080
 99  1  3  1  2  0.0000000  0 12G 4G 2G 9G14G27G15G 7G24G16G26G 5G 8
 -19358942.083 7 -15084863.799 7  21359495.317    21359494.977
  -1576370.466 9  -1228330.840 7  21351943.970    21351942.451
 -14991951.085 6 -11682019.606 5  22295972.736    22295971.389
  -1499338.982 4  -1168314.786 4  24780439.558    24780438.012
  -5141102.221 4  -4006024.359 4  24461659.009    24461655.913
    628805.977 4    489978.840 4  24897888.325    24897886.600
 -23643458.994 9 -18423437.021 9  20446264.840    20446264.079
  -3494163.537 4  -2722716.305 4  24379022.457    24379020.905
  -2147474.024 4  -1673354.845 4  24789519.671    24789516.494
   -469547.079 4   -365857.023 4  25001420.970    25001417.538
  -1608910.805 4  -1253693.786 4  24922459.781    24922456.707
   -747976.572 4   -582838.483 4  24768454.897    24768452.001
 99  1  3  1  2 30.0000000  0 12G 4G 2G 9G14G27G15G 7G24G16G26G 5G 8
 -19438795.572 7 -15147087.272 7  21344299.850    21344299.255
  -1529855.884 9  -1192085.714 7  21360795.337    21360793.913
 -15045142.406 6 -11723467.378 5  22285850.546    22285849.837
  -1539824.795 4  -1199862.116 4  24772735.203    24772733.283
  -5021439.444 4  -3912780.667 4  24484429.659    24484427.042
    734351.889 4    572222.462 4  24917973.388    24917971.013
 -23622128.912 9 -18406816.164 9  20450323.702    20450323.047
  -3606355.075 4  -2810138.121 4  24357674.494    24357671.450
  -2222303.152 4  -1731663.227 4  24775280.424    24775276.678
   -395163.010 4   -307895.444 4  25015575.761    25015572.272
  -1703848.468 4  -1327671.117 4  24904393.239    24904390.988
   -854069.369 4   -665508.077 4  24748266.490    24748263.436
 99  1  3  1  3  0.0000000  0 12G 4G 2G 9G14G27G15G 7G24G16G26G 5G 8
 -19518220.776 7 -15208977.014 7  21329185.747    21329185.167
  -1483004.082 9  -1155577.819 7  21369710.945    21369709.678
 -15097797.165 6 -11764497.057 5  22275830.439    22275829.808
  -1579882.641 4  -1231075.934 4  24765112.505    24765110.428
  -4901740.811 4  -3819508.995 4  24507207.437    24507205.714
    840113.072 4    654633.823 4  24938098.937    24938097.321
 -23600529.498 9 -18389985.436 9  20454434.091    20454433.224
  -3718493.556 4  -2897518.551 4  24336335.188    24336331.343
  -2296936.366 4  -1789818.907 4  24761077.645    24761074.590
   -320693.545 4   -249867.330 4  25029746.778    25029743.462
  -1798790.930 4  -1401652.225 4  24886326.975    24886324.477
   -959920.167 4   -747989.031 4  24728123.580    24728120.424
 99  1  3  1  3 30.0000000  0 12G 4G 2G 9G14G27G15G 7G24G16G26G 5G 8
 -19597230.337 7 -15270542.879 7  21314150.427    21314150.141
  -1435823.702 9  -1118813.893 7  21378689.029    21378687.630
 -15149923.517 6 -11805114.991 5  22265911.332    22265910.096
  -1619516.688 4  -1261959.574 4  24757570.596    24757568.374
  -4782001.047 4  -3726205.266 4  24529993.552    24529991.102
    946080.554 4    737205.883 4  24958263.782    24958261.595
 -23578654.432 9 -18372939.915 9  20458596.821    20458595.623
  -3830565.544 4  -2984847.175 4  24315007.942    24315004.935
  -2371387.574 4  -1847832.802 4  24746910.804    24746906.790
   -246127.119 4   -191763.657 4  25043935.989    25043933.011
  -1893746.336 4  -1475643.362 4  24868256.988    24868254.118
  -1065525.332 4   -830278.566 4  24708026.952    24708024.084
 99  1  3  1  4  0.0000000  0 12G 4G 2G 9G14G27G15G 7G24G16G26G 5G 8
 -19675834.488 8 -15331792.838 7  21299192.561    21299192.339
  -1388327.465 9  -1081803.841 7  21387727.278    21387725.784
 -15201551.533 6 -11845344.598 5  22256086.491    22256085.309
  -1658735.838 4  -1292519.926 4  24750107.164    24750104.927
  -4662239.300 4  -3632884.434 4  24552783.309    24552780.754
   1052244.933 4    819931.400 4  24978467.028    24978464.398
 -23556515.897 9 -18355689.094 9  20462809.676    20462808.378
  -3942549.829 4  -3072107.515 4  24293697.601    24293693.988
  -2445664.941 4  -1905711.267 4  24732774.799    24732773.513
   -171483.086 4   -133599.517 4  25058139.902    25058138.023
  -1988713.159 4  -1549643.376 4  24850185.428    24850183.692
  -1170905.389 4   -912392.683 4  24687973.646    24687971.090
 99  1  3  1  4 30.0000000  0 12G 4G 2G 9G14G27G15G 7G24G16G26G 5G 8
 -19754012.671 8 -15392710.875 7  21284315.709    21284315.445
  -1340498.741 9  -1044534.708 7  21396828.888    21396827.390
 -15252685.150 6 -11885188.967 5  22246356.261    22246355.361
  -1697537.559 4  -1322754.989 4  24742723.080    24742721.192
  -4542461.425 4  -3539551.031 4  24575576.323    24575574.495
   1158610.981 4    902814.076 4  24998707.692    24998705.806
 -23534115.929 9 -18338234.566 9  20467072.310    20467071.217
  -4054429.430 4  -3159286.240 4  24272408.300    24272405.226
  -2519764.003 4  -1963450.748 4  24718674.231    24718673.045
    -96770.273 4    -75381.782 4  25072357.480    25072355.323
  -2083678.579 4  -1623642.250 4  24832115.432    24832112.105
  -1276063.743 4   -994334.043 4  24667962.846    24667960.171
 99  1  3  1  5  0.0000000  0 12G 4G 2G 9G14G27G15G 7G24G16G26G 5G 8
 -19831755.789 8 -15453289.898 7  21269521.843    21269521.632
  -1292345.546 9  -1007012.744 7  21405992.258    21405990.663
 -15303344.045 6 -11924663.417 5  22236716.277    22236715.349
  -1735924.679 4  -1352666.990 4  24735418.331    24735416.982
  -4422671.315 4  -3446208.098 4  24598371.829    24598369.687
   1265170.443 4    985847.476 4  25018984.909    25018983.218
 -23511456.181 9 -18320577.616 9  20471384.333    20471383.287
  -4166202.178 4  -3246381.687 4  24251138.241    24251133.484
  -2593699.762 4  -2021063.025 4  24704604.846    24704602.029
    -22001.101 4    -17120.123 4  25086586.114    25086581.658
  -2178656.009 4  -1697650.461 4  24814040.791    24814038.045
  -1381012.310 4  -1076111.927 4  24647991.555    24647988.426
 99  1  3  1  5 30.0000000  0 12G 4G 2G 9G14G27G15G 7G24G16G26G 5G 8
 -19909051.327 8 -15513520.155 7  21254812.892    21254812.810
  -1243883.564 9   -969250.173 7  21415214.172    21415212.791
 -15353549.821 6 -11963784.794 5  22227161.922    22227161.307
  -1773897.394 4  -1382256.079 4  24728192.364    24728190.226
  -4302886.262 4  -3352869.055 4  24621164.942    24621164.232
   1371909.986 4   1069021.162 4  25039296.069    25039295.284
 -23488529.798 9 -18302712.895 9  20475747.029    20475745.945
  -4277877.831 4  -3333401.543 4  24229886.662    24229883.802
  -2667476.977 4  -2078551.687 4  24690565.633    24690563.895
     52794.775 4     41162.350 4  25100819.690    25100813.791
  -2273645.316 4  -1771667.934 4  24795964.553    24795962.426
  -1485777.582 4  -1157746.958 4  24628055.155    24628051.828
 99  1  3  1  6  0.0000000  0 12G 4G 2G 9G14G27G15G 7G24G16G26G 5G 8
 -19985883.321 8 -15573389.210 7  21240192.104    21240191.995
  -1195100.054 8   -931237.056 7  21424497.202    21424495.803
 -15403290.777 6 -12002543.967 5  22217696.532    22217695.587
  -1811435.036 4  -1411506.139 4  24721048.972    24721047.429
  -4183116.620 4  -3259542.015 4  24643956.571    24643954.525
   1478832.759 4   1152337.613 4  25059642.551    25059641.001
 -23465348.421 9 -18284649.475 9  20480158.189    20480157.118
  -4389463.885 4  -3420351.548 4  24208652.431    24208648.921
  -2741081.871 4  -2135906.061 4  24676560.715    24676557.654
    127607.154 4     99457.676 4  25115054.880    25115051.425
  -2368642.004 4  -1845691.195 4  24777887.299    24777885.048
  -1590346.723 4  -1239229.168 4  24608155.772    24608152.522
 99  1  3  1  6 30.0000000  0 12G 4G 2G 9G14G27G15G 7G24G16G26G 5G 8
 -20062245.170 8 -15632891.923 7  21225660.751    21225660.654
  -1145967.507 8   -892951.968 7  21433846.933    21433845.150
 -15452549.661 6 -12040927.491 5  22208323.122    22208322.337
  -1848517.460 4  -1440401.486 4  24713992.124    24713990.849
  -4063340.038 4  -3166209.647 4  24666751.111    24666746.732
   1585948.332 4   1235804.312 4  25080025.735    25080024.966
 -23441891.339 9 -18266371.218 9  20484621.841    20484620.759
  -4500966.999 4  -3507236.931 4  24187434.258    24187431.066
  -2814494.285 4  -2193110.492 4  24662591.104    24662587.086
    202458.778 4    157783.567 4  25129299.353    25129294.738
  -2463652.662 4  -1919725.319 4  24759807.582    24759804.916
  -1694685.558 4  -1320531.958 4  24588300.933    24588297.884
 99  1  3  1  7  0.0000000  0 12G 4G 2G 9G14G27G15G 7G24G16G26G 5G 8
 -20138149.694 8 -15692038.278 7  21211216.656    21211216.358
  -1096496.692 9   -854403.288 7  21443261.101    21443259.630
 -15501326.202 6 -12078935.167 5  22199041.254    22199040.579
  -1885150.391 4  -1468946.569 4  24707021.582    24707019.106
  -3943565.556 4  -3072878.907 4  24689543.443    24689540.955
   1693242.951 4   1319410.570 4  25100443.693    25100442.282
 -23418169.091 9 -18247886.338 9  20489136.210    20489135.077
  -4612398.875 4  -3594066.790 4  24166228.638    24166226.000
  -2887723.952 4  -2250172.553 4  24648655.613    24648651.848
    277342.192 4    216134.227 4  25143546.946    25143545.507
  -2558692.245 4  -1993781.937 4  24741722.051    24741719.641
  -1798801.837 4  -1401661.291 4  24568488.091    24568484.643
 99  1  3  1  7 30.0000000  0 10G 4G 2G 9G14G27G 7G24G16G 5G 8
 -20213599.946 8 -15750830.654 7  21196858.833    21196858.880
  -1046665.349 9   -815573.673 7  21452743.505    21452742.377
 -15549606.811 6 -12116556.399 5  22189853.934    22189853.081
  -1921335.488 4  -1497142.708 4  24700135.846    24700134.048
  -3823786.986 4  -2979544.933 4  24712334.972    24712332.702
 -23394200.375 9 -18229209.408 9  20493697.256    20493696.249
  -4723771.513 4  -3680850.521 4  24145034.044    24145032.365
  -2960778.024 4  -2307097.718 4  24634752.728    24634749.657
  -2653762.740 4  -2067862.706 4  24723630.397    24723627.944
  -1902678.593 4  -1482603.999 4  24548721.097    24548718.251
 99  1  3  1  8  0.0000000  0 11G 4G 2G 9G14G27G26G 7G24G16G 5G 8
 -20288601.222 8 -15809273.181 7  21182586.792    21182586.542
   -996452.927 9   -776447.117 7  21462298.314    21462297.405
 -15597371.841 6 -12153775.867 5  22180764.648    22180763.335
  -1957074.835 4  -1524991.519 4  24693334.815    24693332.888
  -3703993.477 4  -2886199.286 4  24735131.552    24735129.029
        -0.12814        -0.48214  25172071.611    25172064.969
 -23369985.151 9 -18210340.396 9  20498305.120    20498304.229
  -4835089.309 4  -3767591.565 4  24123852.603    24123849.388
  -3033658.101 4  -2363887.346 4  24620881.923    24620881.201
  -2748873.778 4  -2141975.088 4  24705531.258    24705528.480
  -2006296.621 4  -1563345.135 4  24529003.162    24529000.296
 99  1  3  1  8 30.0000000  0 10G 4G 2G 9G14G27G 7G24G16G 5G 8
 -20363140.513 8 -15867355.719 7  21168402.531    21168402.336
   -945862.809 8   -737026.253 7  21471925.142    21471924.220
 -15644602.425 6 -12190578.885 5  22171776.610    22171775.956
  -1992374.377 4  -1552497.608 4  24686616.900    24686615.288
  -3584172.718 4  -2792832.454 4  24757932.915    24757930.679
 -23345509.454 9 -18191268.416 9  20502962.701    20502961.832
  -4946334.746 4  -3854276.133 4  24102683.648    24102681.008
  -3106351.796 4  -2420531.744 4  24607049.646    24607048.426
  -2844014.035 4  -2216110.207 4  24687427.042    24687423.397
  -2109653.600 4  -1643882.874 4  24509334.665    24509331.769
 99  1  3  1  9  0.0000000  0 10G 4G 2G 9G14G27G 7G24G16G 5G 8
 -20437190.293 8 -15925056.819 7  21154311.057    21154311.196
   -894901.700 8   -697316.308 7  21481622.887    21481621.775
 -15691281.020 6 -12226951.789 5  22162893.885    22162893.659
  -2027218.369 4  -1579648.736 4  24679986.981    24679984.393
  -3464326.463 4  -2699445.761 4  24780739.976    24780737.807
 -23320780.804 9 -18171999.327 9  20507668.425    20507667.680
  -5057491.256 4  -3940891.427 4  24081529.895    24081527.954
  -3178844.463 4  -2477019.462 4  24593255.495    24593252.704
  -2939154.301 4  -2290245.383 4  24669320.529    24669318.077
  -2212745.265 4  -1724213.871 4  24489716.765    24489714.454
 99  1  3  1  9 30.0000000  0 10G 4G 2G 9G14G27G 7G24G16G 5G 8
 -20510762.624 8 -15982385.882 7  21140310.606    21140310.600
   -843588.617 8   -657332.099 7  21491387.538    21491386.385
 -15737425.155 6 -12262908.227 5  22154113.137    22154112.729
  -2061616.747 4  -1606452.623 4  24673441.186    24673438.738
  -3344478.346 4  -2606057.626 4  24803545.516    24803544.347
 -23295815.586 9 -18152545.898 9  20512419.047    20512418.351
  -5168576.120 4  -4027451.021 4  24060391.324    24060388.948
  -3251142.398 4  -2533355.415 4  24579498.272    24579494.929
  -3034299.900 4  -2364384.739 4  24651214.912    24651211.897
  -2315588.204 4  -1804351.086 4  24470146.982    24470144.313
 99  1  3  1 10  0.0000000  0 10G 4G 2G 9G14G27G 7G24G16G 5G 8
 -20583853.988 8 -16039340.164 7  21126402.054    21126401.573
   -791951.475 8   -617095.378 6  21501213.748    21501212.530
 -15783032.531 6 -12298446.406 5  22145434.284    22145433.429
  -2095573.878 4  -1632912.684 4  24666979.226    24666976.879
  -3224642.583 4  -2512679.125 4  24826348.957    24826347.180
 -23270603.175 9 -18132899.855 9  20517216.730    20517215.927
  -5279571.351 4  -4113940.623 4  24039270.166    24039266.508
  -3323220.996 4  -2589520.521 4  24565782.369    24565779.050
  -3129438.590 4  -2438518.703 4  24633110.926    24633108.070
  -2418200.555 4  -1884308.632 4  24450620.466    24450617.905
 99  1  3  1 10 30.0000000  0 10G 4G 2G 9G14G27G 7G24G16G 5G 8
 -20656469.353 8 -16095923.540 7  21112583.807    21112583.126
   -740002.782 8   -576615.887 7  21511099.490    21511097.925
 -15828113.440 6 -12333574.346 5  22136855.475    22136854.756
  -2129085.076 4  -1659025.266 4  24660601.904    24660599.840
  -3104826.321 4  -2419315.790 4  24849149.284    24849148.254
 -23245140.801 9 -18113059.038 9  20522062.121    20522061.299
  -5390470.420 4  -4200355.354 4  24018166.192    24018163.144
  -3395070.312 4  -2645506.972 4  24552109.653    24552106.583
  -3224562.444 4  -2512641.166 4  24615008.738    24615006.791
  -2520583.054 4  -1964087.060 4  24431136.980    24431134.044
 99  1  3  1 11  0.0000000  0 10G 4G 2G 9G14G27G 7G24G16G 5G 8
 -20728618.592 8 -16152143.701 7  21098854.112    21098853.423
   -687740.993 8   -535892.426 6  21521044.498    21521043.034
 -15872693.712 7 -12368312.178 6  22128372.435    22128371.831
  -2162167.453 4  -1684803.710 4  24654306.562    24654305.251
  -2985041.166 4  -2325976.728 4  24871943.596    24871941.840
 -23219432.489 9 -18093026.580 9  20526954.307    20526953.503
  -5501282.447 4  -4286702.344 4  23997078.197    23997075.342
  -3466706.867 4  -2701327.584 4  24538477.797    24538474.095
  -3319685.069 4  -2586762.646 4  24596909.289    24596906.442
  -2622736.112 4  -2043686.718 4  24411697.144    24411694.863
 99  1  3  1 11 30.0000000  0 10G 4G 2G 9G14G27G 7G24G16G 5G 8
 -20800311.096 8 -16208007.966 7  21085211.583    21085210.926
   -635152.114 8   -494914.089 6  21531051.697    21531050.336
 -15916761.518 7 -12402650.681 5  22119986.310    22119986.311
  -2194819.905 4  -1710247.117 4  24648092.980    24648091.382
  -2865274.890 4  -2232652.343 4  24894734.118    24894732.717
 -23193463.284 9 -18072790.830 9  20531896.048    20531895.116
  -5611983.780 4  -4372962.969 4  23976013.674    23976010.319
  -3538122.206 4  -2756975.851 4  24524887.520    24524885.087
  -3414808.466 4  -2660884.688 4  24578805.982    24578804.385
  -2724637.242 4  -2123090.089 4  24392305.824    24392304.127
 99  1  3  1 12  0.0000000  0 10G 4G 2G 9G14G27G 7G24G16G 5G 8
 -20871552.076 8 -16263520.390 8  21071655.072    21071654.465
   -582220.450 8   -453668.645 6  21541124.252    21541123.114
 -15960301.608 6 -12436577.986 5  22111700.481    22111700.410
  -2227039.865 4  -1735353.536 4  24641961.661    24641959.903
  -2745517.049 4  -2139334.560 4  24917523.247    24917521.121
 -23167234.006 9 -18052352.426 9  20536887.177    20536886.134
  -5722561.509 4  -4459127.335 4  23954971.497    23954968.194
  -3609300.765 4  -2812439.644 4  24511342.441    24511339.312
  -3509941.297 4  -2735014.139 4  24560703.246    24560701.924
  -2826251.595 4  -2202270.045 4  24372968.372    24372968.031
 99  1  3  1 12 30.0000000  0 10G 4G 2G 9G14G27G 7G24G16G 5G 8
 -20942365.413 8 -16318699.590 8  21058179.531    21058179.160
   -528949.891 8   -412159.133 6  21551261.119    21551260.248
 -16003332.591 6 -12470108.578 5  22103512.180    22103511.566
  -2258835.779 4  -1760129.550 4  24635911.027    24635909.605
  -2625775.282 4  -2046029.310 4  24940309.260    24940308.907
 -23140769.788 9 -18031730.951 9  20541923.119    20541922.154
  -5833040.489 4  -4545214.740 4  23933946.393    23933943.032
  -3680273.204 4  -2867742.787 4  24497837.244    24497833.562
  -3605114.161 4  -2809174.799 4  24542592.211    24542590.719
  -2927575.534 4  -2281223.694 4  24353687.558    24353686.838
 99  1  3  1 13  0.0000000  0 10G 4G 2G 9G14G27G 7G24G16G 5G 8
 -21012731.145 9 -16373530.004 8  21044789.348    21044789.098
   -475330.045 8   -370377.446 6  21561464.776    21561463.850
 -16045834.681 6 -12503227.046 6  22095424.589    22095423.963
  -2290187.153 4  -1784559.180 4  24629945.104    24629942.905
  -2506037.233 4  -1952726.919 4  24963094.904    24963093.786
 -23114070.559 9 -18010926.350 9  20547003.763    20547002.918
  -5943395.822 4  -4631205.831 4  23912948.210    23912945.676
  -3751025.741 4  -2922874.610 4  24484372.899    24484370.255
  -3700312.072 4  -2883354.880 4  24524477.008    24524475.497
  -3028602.838 4  -2359946.184 4  24334462.845    24334461.209
 99  1  3  1 13 30.0000000  0 10G 4G 2G 9G14G27G 7G24G16G 5G 8
 -21082638.520 9 -16428003.256 8  21031486.350    21031486.051
   -421354.955 8   -328318.946 6  21571736.074    21571735.071
 -16087783.021 7 -12535914.016 6  22087442.228    22087441.247
  -2321060.382 4  -1808616.221 4  24624069.808    24624067.432
  -2386302.430 4  -1859427.090 4  24985880.054    24985878.865
 -23087136.408 9 -17989938.692 9  20552129.291    20552128.402
  -6053616.766 4  -4717092.144 4  23891973.799    23891969.472
  -3821531.503 4  -2977814.109 4  24470955.325    24470953.615
  -3795524.323 4  -2957546.235 4  24506359.030    24506358.189
  -3129320.009 4  -2438427.019 4  24315297.109    24315294.996
 99  1  3  1 14  0.0000000  0 10G 4G 2G 9G14G27G 7G24G16G 5G 8
 -21152069.881 8 -16482105.589 8  21018273.902    21018273.430
   -367028.747 8   -285986.849 6  21582074.103    21582073.045
 -16129185.758 7 -12568175.846 6  22079563.074    22079562.636
  -2351458.453 4  -1832302.966 4  24618285.296    24618283.781
  -2266589.585 4  -1766144.350 4  25008660.818    25008659.076
 -23059964.943 9 -17968766.121 9  20557300.014    20557298.977
  -6163719.875 4  -4802886.654 4  23871020.197    23871018.553
  -3891802.591 4  -3032570.774 4  24457583.478    24457580.602
  -3890753.052 4  -3031750.404 4  24488237.236    24488235.460
  -3229747.323 4  -2516682.005 4  24296186.172    24296184.020
 99  1  3  1 14 30.0000000  0 10G 4G 2G 9G14G27G 7G24G16G 5G 8
 -21221001.011 8 -16535818.132 8  21005156.609    21005156.274
   -312368.553 8   -243394.502 6  21592475.500    21592474.384
 -16170050.736 7 -12600018.655 5  22071786.780    22071786.075
  -2381372.413 4  -1855612.506 4  24612593.002    24612590.876
  -2146918.626 4  -1672894.287 4  25031433.420    25031432.573
 -23032544.307 9 -17947399.389 9  20562517.904    20562516.838
  -6273688.366 4  -4888576.368 4  23850094.472    23850092.177
  -3961856.871 4  -3087158.455 4  24444253.439    24444250.742
  -3985976.278 4  -3105950.152 4  24470117.982    24470116.117
  -3329915.233 4  -2594734.861 4  24277125.138    24277122.002
 99  1  3  1 15  0.0000000  0 10G 4G 2G 9G14G27G 7G24G16G 5G 8
 -21289406.728 9 -16589121.266 8  20992139.503    20992139.165
   -257364.016 8   -200533.836 6  21602942.510    21602941.118
 -16210363.433 6 -12631431.104 6  22064115.502    22064114.371
  -2410806.362 4  -1878548.015 4  24606992.538    24606989.882
  -2027304.481 4  -1579688.462 4  25054195.151    25054195.218
 -23004863.609 9 -17925830.008 9  20567785.410    20567784.478
  -6383513.785 4  -4974154.456 4  23829196.358    23829191.829
  -4031676.704 4  -3141563.470 4  24430967.119    24430964.334
  -4081170.648 4  -3180127.496 4  24452002.051    24451999.810
  -3429820.025 4  -2672582.656 4  24258114.292    24258111.614
 99  1  3  1 15 30.0000000  0 10G 2G 9G14G27G 4G 7G24G16G 5G 8
   -202014.255 8   -157404.161 6  21613475.213    21613473.963
 -16250122.374 7 -12662412.055 6  22056549.448    22056549.277
  -2439782.766 4  -1901127.019 4  24601477.940    24601475.994
  -1907761.306 4  -1486537.939 4  25076943.353    25076944.321
 -21357299.489 9 -16642024.693 8  20979219.886    20979219.708
 -22976931.640 9 -17904064.830 9  20573100.701    20573099.820
  -6493211.970 4  -5059633.453 4  23808319.479    23808317.818
  -4101266.858 4  -3195789.520 4  24417725.050    24417721.730
  -4176341.754 4  -3254286.719 4  24433891.193    24433889.226
  -3529459.719 4  -2750223.925 4  24239153.054    24239149.982
 99  1  3  1 16  0.0000000  0 10G 2G 9G14G27G 4G 7G24G16G 5G 8
   -146338.235 7   -114020.261 6  21624070.091    21624068.748
 -16289336.819 7 -12692968.738 6  22049087.356    22049086.907
  -2468314.422 4  -1923359.432 4  24596048.110    24596046.527
  -1788291.189 4  -1393444.357 4  25099678.170    25099678.845
 -21424692.463 9 -16694538.675 8  20966395.409    20966395.362
 -22948751.898 9 -17882106.581 9  20578463.144    20578462.269
  -6602783.981 4  -5145014.200 4  23787468.954    23787466.885
  -4170639.950 4  -3249846.405 4  24404523.136    24404520.076
  -4271481.484 4  -3328421.435 4  24415787.487    24415784.799
  -3628848.541 4  -2827669.665 4  24220239.338    24220237.108
 99  1  3  1 16 30.0000000  0 10G 2G 9G14G27G 4G 7G24G16G 5G 8
    -90329.202 7    -70376.872 6  21634728.075    21634727.133
 -16328002.439 7 -12723097.755 6  22041729.835    22041729.015
  -2496389.740 4  -1945236.241 4  24590705.528    24590704.145
  -1668875.398 4  -1300393.131 4  25122402.562    25122403.257
 -21491589.752 9 -16746666.406 8  20953665.279    20953665.087
 -22920326.339 9 -17859956.785 9  20583872.243    20583871.319
  -6712222.645 4  -5230290.957 4  23766643.757    23766640.160
  -4239769.843 4  -3303713.797 4  24391366.713    24391364.519
  -4366577.252 4  -3402521.930 4  24397691.168    24397687.270
  -3727969.445 4  -2904906.691 4  24201377.258    24201375.692
 99  1  3  1 17  0.0000000  0 10G 2G 9G14G27G 4G 7G24G16G 5G 8
    -33975.156 7    -26464.639 6  21645451.967    21645450.990
 -16366129.435 7 -12752807.065 6  22034474.494    22034473.615
  -2524009.676 4  -1966758.256 4  24585449.179    24585447.733
  -1549490.782 4  -1207366.200 4  25145120.311    25145120.803
 -21558008.763 9 -16798421.455 8  20941026.178    20941025.975
 -22891663.802 9 -17837622.332 9  20589326.547    20589325.614
  -6821542.006 4  -5315474.780 4  23745840.668    23745838.192
  -4308630.176 4  -3357371.148 4  24378262.490    24378261.424
  -4461655.065 4  -3476608.396 4  24379597.597    24379594.927
  -3826809.853 4  -2981925.130 4  24182568.290    24182567.436
 99  1  3  1 17 30.0000000  0 10G 2G 9G14G27G 4G 7G24G16G 5G 8
     22718.927 7     17712.558 6  21656240.778    21656239.273
 -16403735.014 7 -12782110.076 6  22027318.356    22027317.402
  -2551152.424 4  -1987908.431 4  24580284.881    24580282.904
  -1430128.334 4  -1114356.532 4  25167834.094    25167834.311
 -21623959.763 9 -16849811.827 8  20928476.122    20928475.623
 -22862773.104 9 -17815110.091 9  20594824.295    20594823.314
  -6930724.048 4  -5400551.630 4  23725063.077    23725061.676
  -4377223.342 4  -3410820.290 4  24365211.138    24365209.302
  -4556720.205 4  -3550685.026 4  24361508.009    24361503.945
  -3925376.508 4  -3058730.283 4  24163811.135    24163810.174
 99  1  3  1 18  0.0000000  0 10G 2G 9G14G27G 4G 7G24G16G 5G 8
     79759.810 7     62159.987 6  21667095.256    21667093.674
 -16440835.295 7 -12811019.348 6  22020258.409    22020257.300
  -2577793.821 4  -2008667.918 4  24575215.018    24575213.527
  -1310782.075 4  -1021359.468 4  25190545.390    25190545.022
 -21689421.401 9 -16900820.874 8  20916019.182    20916018.726
 -22833643.900 9 -17792412.003 9  20600367.400    20600366.377
  -7039750.393 4  -5485507.138 4  23704317.196    23704312.982
  -4445536.904 4  -3464051.577 4  24352211.785    24352209.726
  -4651772.071 4  -3624751.263 4  24343419.387    24343417.468
  -4023660.147 4  -3135314.856 4  24145108.735    24145106.974
 99  1  3  1 18 30.0000000  0 10G 2G 9G14G27G 4G 7G24G16G 5G 8
    137150.698 7    106880.151 6  21678016.300    21678014.745
 -16477446.612 7 -12839547.617 6  22013290.955    22013290.834
  -2603954.214 4  -2029052.608 4  24570236.474    24570234.914
  -1191468.223 4   -928387.653 4  25213250.197    25213248.893
 -21754394.860 9 -16951449.525 8  20903655.150    20903654.930
 -22804297.618 9 -17769544.761 9  20605951.842    20605950.870
  -7148639.585 4  -5570355.753 4  23683596.726    23683593.531
  -4513580.683 4  -3517072.655 4  24339264.054    24339260.777
  -4746839.821 4  -3698829.912 4  24325329.136    24325324.885
  -4121659.057 4  -3211677.608 4  24126459.487    24126458.744
 99  1  3  1 19  0.0000000  0 10G 2G 9G14G27G 4G 7G24G16G 5G 8
    194885.638 7    151868.406 6  21689002.848    21689001.485
 -16513560.405 7 -12867688.209 6  22006418.777    22006418.438
  -2629629.869 4  -2049059.575 4  24565350.628    24565349.303
  -1072194.954 4   -835447.475 4  25235947.276    25235947.053
 -21818880.392 9 -17001697.971 8  20891383.956    20891383.823
 -22774736.508 9 -17746510.119 9  20611577.123    20611576.131
  -7257385.126 4  -5655092.453 4  23662901.175    23662899.620
  -4581365.871 4  -3569892.226 4  24326364.065    24326360.631
  -4841923.221 4  -3772920.732 4  24307234.236    24307233.394
  -4219373.620 4  -3287818.788 4  24107864.962    24107863.325
 99  1  3  1 19 30.0000000  0  9G 2G 9G14G 4G 7G24G16G 5G 8
    252956.791 7    197118.648 6  21700053.544    21700052.377
 -16549157.363 7 -12895426.071 6  21999644.849    21999644.704
  -2654826.211 4  -2068693.060 4  24560556.285    24560554.143
 -21882865.015 9 -17051556.097 8  20879207.918    20879207.832
 -22744961.627 9 -17723308.904 9  20617243.035    20617241.909
  -7365989.374 4  -5739719.087 4  23642234.735    23642233.662
  -4648903.204 4  -3622518.672 4  24313510.621    24313508.741
  -4937000.934 4  -3847007.127 4  24289141.809    24289138.695
  -4316784.737 4  -3363723.496 4  24089328.665    24089326.444
 99  1  3  1 20  0.0000000  0  9G 2G 9G14G 4G 7G24G16G 5G 8
    311354.697 7    242623.498 6  21711166.173    21711165.152
 -16584214.268 7 -12922743.114 6  21992973.644    21992973.340
  -2679550.025 4  -2087958.330 4  24555851.269    24555849.270
 -21946343.962 9 -17101020.188 8  20867128.243    20867128.215
 -22714965.186 9 -17699935.046 9  20622951.138    20622949.996
  -7474475.535 4  -5824253.661 4  23621592.282    23621588.929
  -4716191.174 4  -3674950.790 4  24300706.314    24300704.498
  -5032081.502 4  -3921095.763 4  24271048.429    24271046.730
  -4413872.516 4  -3439376.242 4  24070853.763    24070851.183
 99  1  3  1 20 30.0000000  0  9G 2G 9G14G 4G 7G24G16G 5G 8
    370092.911 7    288393.525 6  21722343.713    21722342.184
 -16618676.908 7 -12949597.087 6  21986415.398    21986415.517
  -2703765.914 4  -2106827.802 4  24551242.884    24551242.075
 -22009291.375 9 -17150070.097 8  20855149.719    20855149.640
 -22684710.443 9 -17676359.915 9  20628708.320    20628707.189
  -7582821.973 4  -5908679.346 4  23600973.261    23600971.282
  -4783205.756 4  -3727169.856 4  24287954.277    24287952.947
  -5127130.542 4  -3995159.803 4  24252962.012    24252958.314
  -4510606.906 4  -3514753.654 4  24052444.740    24052443.283
 99  1  3  1 21  0.0000000  0  9G 2G 9G14G 4G 7G24G16G 5G 8
    429148.480 7    334410.843 6  21733581.787    21733580.168
 -16652562.425 7 -12976001.364 6  21979967.214    21979967.279
  -2727475.160 4  -2125302.491 4  24546731.307    24546730.314
 -22071720.843 9 -17198716.412 8  20843269.845    20843269.700
 -22654210.130 9 -17652593.432 9  20634512.458    20634511.302
  -7691035.918 4  -5993001.840 4  23580380.409    23580379.604
  -4849954.432 4  -3779181.754 4  24275253.419    24275249.585
  -5222161.131 4  -4069209.440 4  24234878.647    24234874.675
  -4607010.432 4  -3589873.252 4  24034100.091    24034098.502
 99  1  3  1 21 30.0000000  0  9G 2G 9G14G 4G 7G24G16G 5G 8
    488520.266 7    380674.562 6  21744879.584    21744877.969
 -16685876.303 7 -13001960.208 6  21973627.710    21973627.749
  -2750683.501 4  -2143386.889 4  24542315.036    24542313.546
 -22133635.767 9 -17246961.785 8  20831487.751    20831487.579
 -22623473.537 9 -17628642.836 9  20640361.378    20640360.210
  -7799119.471 4  -6077222.748 4  23559813.539    23559811.265
  -4916434.080 4  -3830984.017 4  24262602.949    24262599.244
  -5317184.721 4  -4143253.684 4  24216794.456    24216792.809
  -4703077.098 4  -3664730.337 4  24015819.226    24015818.090
 99  1  3  1 22  0.0000000  0  9G 2G 9G14G 4G 7G24G16G 5G 8
    548217.893 7    427192.185 6  21756239.946    21756238.256
 -16718613.053 7 -13027469.342 6  21967398.233    21967397.704
  -2773362.320 4  -2161058.676 4  24537999.802    24537997.668
 -22195037.078 9 -17294806.942 8  20819803.617    20819803.112
 -22592484.568 9 -17604495.580 9  20646258.273    20646257.084
  -7907047.027 4  -6161322.013 4  23539275.603    23539273.899
  -4982628.220 4  -3882563.838 4  24250005.948    24250003.211
  -5412204.713 4  -4217295.130 4  24198713.616    24198711.139
  -4798808.181 4  -3739325.940 4  23997602.478    23997601.293
 99  1  3  1 22 30.0000000  0  9G 2G 9G14G 4G 7G24G16G 5G 8
    608244.944 7    473966.503 6  21767662.861    21767661.289
 -16750802.125 7 -13052551.711 6  21961272.663    21961272.049
  -2795536.878 4  -2178337.525 4  24533779.926    24533778.190
 -22255934.144 9 -17342259.181 8  20808215.119    20808214.995
 -22561263.208 9 -17580167.243 9  20652199.613    20652198.500
  -8014811.484 4  -6245294.270 4  23518767.661    23518767.340
  -5048541.740 4  -3933924.965 4  24237462.214    24237460.431
  -5507220.540 4  -4291333.281 4  24180632.573    24180629.889
  -4894226.991 4  -3813678.215 4  23979444.869    23979443.250
 99  1  3  1 23  0.0000000  0  9G 2G 9G14G 4G 7G24G16G 5G 8
    668610.147 7    521004.314 6  21779150.012    21779148.539
 -16782466.423 7 -13077225.166 6  21955247.524    21955246.729
  -2817232.992 4  -2195243.589 4  24529650.490    24529648.749
 -22316343.881 9 -17389331.681 8  20796719.370    20796719.459
 -22529828.279 9 -17555672.483 9  20658181.542    20658180.552
  -8122402.611 4  -6329131.468 4  23498293.445    23498291.859
  -5114177.788 4  -3985069.857 4  24224971.292    24224970.352
  -5602239.601 4  -4365373.969 4  24162550.376    24162549.333
  -4989331.724 4  -3887785.726 4  23961347.577    23961344.861
 99  1  3  1 23 30.0000000  0  9G 2G 9G14G 4G 7G24G16G 5G 8
    729326.350 7    568315.628 6  21790703.744    21790702.321
 -16813590.869 7 -13101477.955 6  21949325.115    21949324.290
  -2838450.076 4  -2211776.364 4  24525612.675    24525611.742
 -22376268.251 9 -17436025.971 8  20785316.116    20785316.196
 -22498174.521 9 -17531007.208 9  20664205.045    20664204.098
  -8229807.139 4  -6412823.231 4  23477856.580    23477853.637
  -5179530.888 4  -4035994.316 4  24212536.005    24212533.079
  -5697249.897 4  -4439407.871 4  24144470.491    24144467.835
  -5084107.510 4  -3961636.926 4  23943312.207    23943310.080
 99  1  3  1 24  0.0000000  0  9G 2G 9G14G 4G 7G24G16G 5G 8
    790404.116 7    615908.681 6  21802326.455    21802325.347
 -16844174.244 7 -13125309.135 6  21943505.064    21943504.724
  -2859193.963 4  -2227940.402 4  24521665.770    24521665.038
 -22435686.387 9 -17482325.795 8  20774009.288    20774009.229
 -22466292.378 9 -17506163.971 9  20670271.912    20670270.905
  -8337012.604 4  -6496359.898 4  23457455.368    23457453.945
  -5244594.678 4  -4086693.313 4  24200155.110    24200152.030
  -5792235.305 4  -4513422.311 4  24126394.506    24126393.167
  -5178565.306 4  -4035240.321 4  23925337.070    23925335.718
 99  1  3  1 24 30.0000000  0  9G 2G 9G14G 4G 7G24G16G 5G 8
    851850.474 7    663788.946 5  21814019.296    21814018.102
 -16874209.785 7 -13148713.433 6  21937789.364    21937788.947
  -2879478.364 4  -2243746.397 4  24517806.187    24517804.499
 -22494590.503 9 -17528225.086 8  20762800.296    20762799.936
 -22434178.780 9 -17481140.380 9  20676382.745    20676381.793
  -8444016.448 4  -6579739.471 4  23437091.975    23437091.178
  -5309358.767 4  -4137158.796 4  24187831.236    24187827.863
  -5887181.275 4  -4587406.093 4  24108327.025    24108325.265
  -5272702.184 4  -4108593.670 4  23907423.333    23907422.668
 99  1  3  1 25  0.0000000  0  9G 2G 9G14G 4G 7G24G16G 5G 8
    913652.504 7    711946.358 5  21825779.675    21825778.530
 -16903686.139 7 -13171682.001 6  21932179.955    21932179.578
  -2899285.033 4  -2259180.152 4  24514037.365    24514035.553
 -22552989.073 9 -17573730.442 9  20751687.425    20751687.191
 -22401838.584 9 -17455940.219 9  20682537.026    20682536.050
  -8550826.720 4  -6662968.205 4  23416767.645    23416766.483
  -5373805.998 4  -4187377.345 4  24175566.988    24175565.234
  -5982096.355 4  -4661365.789 4  24090265.448    24090263.739
  -5366508.145 4  -4181689.100 4  23889572.674    23889571.324
 99  1  3  1 25 30.0000000  0  9G 2G 9G14G 4G 7G24G16G 5G 8
    975794.082 7    760368.351 5  21837604.904    21837603.606
 -16932593.239 7 -13194206.992 6  21926679.217    21926678.575
  -2918611.941 4  -2274240.055 4  24510359.504    24510357.813
 -22610874.299 9 -17618835.793 9  20740672.277    20740672.128
 -22369283.537 9 -17430572.643 9  20688732.107    20688731.063
  -8657474.775 4  -6746070.544 4  23396473.422    23396472.387
  -5437933.961 4  -4237347.138 4  24163363.144    24163361.489
  -6076982.369 4  -4735302.793 4  24072210.714    24072206.834
  -5459995.662 4  -4254536.402 4  23871782.925    23871781.354
 99  1  3  1 26  0.0000000  0  9G 2G 9G14G 4G 7G24G16G 5G 8
   1038258.810 7    809042.152 5  21849491.656    21849490.379
 -16960931.803 7 -13216288.967 6  21921286.495    21921286.150
  -2937452.766 4  -2288921.188 4  24506773.028    24506772.119
 -22668238.519 9 -17663535.164 9  20729756.148    20729755.964
 -22336505.576 9 -17405031.370 9  20694969.539    20694968.459
  -8763972.855 4  -6829056.019 4  23376207.815    23376205.583
  -5501738.728 4  -4287065.095 4  24151221.627    24151219.280
  -6171831.072 4  -4809210.727 4  24054158.898    24054159.023
  -5553149.113 4  -4327123.409 4  23854055.686    23854054.255
 99  1  3  1 26 30.0000000  0  9G 2G 9G14G 4G 7G24G16G 5G 8
   1101038.437 7    857961.329 5  21861438.189    21861436.887
 -16988699.734 7 -13237926.301 6  21916002.484    21916002.386
  -2955788.546 4  -2303208.771 4  24503284.782    24503281.900
 -22725086.163 9 -17707832.009 9  20718938.519    20718938.129
 -22303511.603 9 -17379321.775 9  20701248.021    20701247.074
  -8870326.182 4  -6911928.711 4  23355968.836    23355967.079
  -5565209.077 4  -4336522.447 4  24139143.571    24139141.346
  -6266648.024 4  -4883094.016 4  24036116.533    24036115.385
  -5645931.397 4  -4399421.171 4  23836400.142    23836398.312
